Observation data for Estelline on 12/09/2018      Previous  Date       Current Mesonet Observations  Soil Data  Daily Summary Page  Observations in Plain Language
KES1 090600Z 28004KT M03/M08 A3034 RMK A01 T10261075  RH  069%=      5-min Rain = 0
KES1 090601Z 28005KT M03/M08 A3034 RMK A01 T10261075  RH  069%=      5-min Rain = 0
KES1 090602Z 28005KT M03/M08 A3034 RMK A01 T10261076  RH  069%=      5-min Rain = 0
KES1 090603Z 27004KT M03/M08 A3034 RMK A01 T10261077  RH  068%=      5-min Rain = 0
KES1 090604Z 27004KT M03/M08 A3034 RMK A01 T10261078  RH  068%=      5-min Rain = 0
KES1 090605Z 27005KT M03/M08 A3034 RMK A01 T10261079  RH  067%=      5-min Rain = 0
KES1 090606Z 27005KT M03/M08 A3034 RMK A01 T10261079  RH  067%=      5-min Rain = 0
KES1 090607Z 26004KT M03/M08 A3034 RMK A01 T10261079  RH  067%=      5-min Rain = 0
KES1 090608Z 26004KT M03/M08 A3034 RMK A01 T10261079  RH  067%=      5-min Rain = 0
KES1 090609Z 26003KT M03/M08 A3034 RMK A01 T10261079  RH  067%=      5-min Rain = 0
KES1 090610Z 27003KT M03/M08 A3034 RMK A01 T10251079  RH  066%=      5-min Rain = 0
KES1 090611Z 27003KT M03/M08 A3034 RMK A01 T10251079  RH  066%=      5-min Rain = 0
KES1 090612Z 28003KT M03/M08 A3034 RMK A01 T10251079  RH  066%=      5-min Rain = 0
KES1 090613Z 28003KT M02/M08 A3034 RMK A01 T10241080  RH  065%=      5-min Rain = 0
KES1 090614Z 28003KT M02/M08 A3034 RMK A01 T10241081  RH  065%=      5-min Rain = 0
KES1 090615Z 28003KT M02/M08 A3034 RMK A01 T10231081  RH  064%=      5-min Rain = 0
KES1 090616Z 28003KT M02/M08 A3034 RMK A01 T10221081  RH  064%=      5-min Rain = 0
KES1 090617Z 27003KT M02/M08 A3034 RMK A01 T10221080  RH  064%=      5-min Rain = 0
KES1 090618Z 27003KT M02/M08 A3034 RMK A01 T10231080  RH  065%=      5-min Rain = 0
KES1 090619Z 27003KT M02/M08 A3034 RMK A01 T10231080  RH  065%=      5-min Rain = 0
KES1 090620Z 26003KT M03/M08 A3034 RMK A01 T10251080  RH  066%=      5-min Rain = 0
KES1 090621Z 26003KT M03/M08 A3034 RMK A01 T10251079  RH  066%=      5-min Rain = 0
KES1 090622Z 26003KT M03/M08 A3034 RMK A01 T10261078  RH  067%=      5-min Rain = 0
KES1 090623Z 26003KT M03/M08 A3034 RMK A01 T10271077  RH  068%=      5-min Rain = 0
KES1 090624Z 26003KT M03/M08 A3034 RMK A01 T10271077  RH  068%=      5-min Rain = 0
KES1 090625Z 26004KT M03/M08 A3034 RMK A01 T10271076  RH  069%=      5-min Rain = 0
KES1 090626Z 26004KT M03/M08 A3034 RMK A01 T10261076  RH  069%=      5-min Rain = 0
KES1 090627Z 26004KT M03/M08 A3034 RMK A01 T10271075  RH  069%=      5-min Rain = 0
KES1 090628Z 26004KT M03/M08 A3034 RMK A01 T10271075  RH  069%=      5-min Rain = 0
KES1 090629Z 26004KT M03/M07 A3034 RMK A01 T10271074  RH  070%=      5-min Rain = 0
KES1 090630Z 26004KT M03/M07 A3034 RMK A01 T10281074  RH  071%=      5-min Rain = 0
KES1 090631Z 27004KT M03/M07 A3034 RMK A01 T10281073  RH  071%=      5-min Rain = 0
KES1 090632Z 27004KT M03/M07 A3034 RMK A01 T10291073  RH  072%=      5-min Rain = 0
KES1 090633Z 27003KT M03/M07 A3034 RMK A01 T10291072  RH  072%=      5-min Rain = 0
KES1 090634Z 28003KT M03/M07 A3034 RMK A01 T10291073  RH  072%=      5-min Rain = 0
KES1 090635Z 28003KT M03/M07 A3034 RMK A01 T10291072  RH  072%=      5-min Rain = 0
KES1 090636Z 28003KT M03/M07 A3034 RMK A01 T10301073  RH  072%=      5-min Rain = 0
KES1 090637Z 29004KT M03/M07 A3034 RMK A01 T10291072  RH  072%=      5-min Rain = 0
KES1 090638Z 29003KT M03/M07 A3034 RMK A01 T10291073  RH  071%=      5-min Rain = 0
KES1 090639Z 29003KT M03/M07 A3034 RMK A01 T10281074  RH  071%=      5-min Rain = 0
KES1 090640Z 29003KT M03/M07 A3034 RMK A01 T10271074  RH  070%=      5-min Rain = 0
KES1 090641Z 29003KT M03/M08 A3034 RMK A01 T10271075  RH  070%=      5-min Rain = 0
KES1 090642Z 29003KT M03/M08 A3033 RMK A01 T10271075  RH  070%=      5-min Rain = 0
KES1 090643Z 29002KT M03/M07 A3033 RMK A01 T10271074  RH  070%=      5-min Rain = 0
KES1 090644Z 29003KT M03/M08 A3033 RMK A01 T10281075  RH  070%=      5-min Rain = 0
KES1 090645Z 28003KT M03/M08 A3033 RMK A01 T10291076  RH  070%=      5-min Rain = 0
KES1 090646Z 28003KT M03/M08 A3033 RMK A01 T10281077  RH  069%=      5-min Rain = 0
KES1 090647Z 28003KT M03/M08 A3033 RMK A01 T10271078  RH  068%=      5-min Rain = 0
KES1 090648Z 28003KT M03/M08 A3033 RMK A01 T10261078  RH  067%=      5-min Rain = 0
KES1 090649Z 27003KT M03/M08 A3033 RMK A01 T10251079  RH  067%=      5-min Rain = 0
KES1 090650Z 26003KT M02/M08 A3033 RMK A01 T10241079  RH  066%=      5-min Rain = 0
KES1 090651Z 27002KT M02/M08 A3033 RMK A01 T10241078  RH  066%=      5-min Rain = 0
KES1 090652Z 28002KT M03/M08 A3033 RMK A01 T10251078  RH  067%=      5-min Rain = 0
KES1 090653Z 28002KT M03/M08 A3033 RMK A01 T10251078  RH  067%=      5-min Rain = 0
KES1 090654Z 28002KT M03/M08 A3033 RMK A01 T10251078  RH  067%=      5-min Rain = 0
KES1 090655Z 29002KT M03/M08 A3033 RMK A01 T10261078  RH  067%=      5-min Rain = 0
KES1 090656Z 28002KT M03/M08 A3033 RMK A01 T10261078  RH  067%=      5-min Rain = 0
KES1 090657Z 29003KT M03/M08 A3033 RMK A01 T10261078  RH  067%=      5-min Rain = 0
KES1 090658Z 29003KT M03/M08 A3033 RMK A01 T10261079  RH  067%=      5-min Rain = 0
KES1 090659Z 30003KT M03/M08 A3033 RMK A01 T10261079  RH  067%=      5-min Rain = 0
KES1 090700Z 30003KT M03/M08 A3033 RMK A01 T10261079  RH  067%=      5-min Rain = 0
KES1 090701Z 29003KT M03/M08 A3033 RMK A01 T10261079  RH  067%=      5-min Rain = 0
KES1 090702Z 29003KT M03/M08 A3033 RMK A01 T10261079  RH  067%=      5-min Rain = 0
KES1 090703Z 29003KT M03/M08 A3033 RMK A01 T10261080  RH  067%=      5-min Rain = 0
KES1 090704Z 28003KT M03/M08 A3034 RMK A01 T10261080  RH  066%=      5-min Rain = 0
KES1 090705Z 28004KT M03/M08 A3034 RMK A01 T10261079  RH  067%=      5-min Rain = 0
KES1 090706Z 29004KT M03/M08 A3034 RMK A01 T10261079  RH  067%=      5-min Rain = 0
KES1 090707Z 28004KT M03/M08 A3034 RMK A01 T10261079  RH  067%=      5-min Rain = 0
KES1 090708Z 29004KT M03/M08 A3034 RMK A01 T10261079  RH  067%=      5-min Rain = 0
KES1 090709Z 28004KT M03/M08 A3034 RMK A01 T10271080  RH  067%=      5-min Rain = 0
KES1 090710Z 28004KT M03/M08 A3034 RMK A01 T10281080  RH  067%=      5-min Rain = 0
KES1 090711Z 28004KT M03/M08 A3034 RMK A01 T10291080  RH  068%=      5-min Rain = 0
KES1 090712Z 28003KT M03/M08 A3034 RMK A01 T10291080  RH  068%=      5-min Rain = 0
KES1 090713Z 26003KT M03/M08 A3034 RMK A01 T10301080  RH  068%=      5-min Rain = 0
KES1 090714Z 26003KT M03/M08 A3034 RMK A01 T10301079  RH  069%=      5-min Rain = 0
KES1 090715Z 27003KT M03/M08 A3034 RMK A01 T10301079  RH  069%=      5-min Rain = 0
KES1 090716Z 26003KT M03/M08 A3034 RMK A01 T10301080  RH  069%=      5-min Rain = 0
KES1 090717Z 28003KT M03/M08 A3034 RMK A01 T10301080  RH  068%=      5-min Rain = 0
KES1 090718Z 28003KT M03/M08 A3034 RMK A01 T10301080  RH  068%=      5-min Rain = 0
KES1 090719Z 28003KT M03/M08 A3034 RMK A01 T10301082  RH  067%=      5-min Rain = 0
KES1 090720Z 28003KT M03/M08 A3034 RMK A01 T10291082  RH  067%=      5-min Rain = 0
KES1 090721Z 28002KT M03/M08 A3034 RMK A01 T10291082  RH  067%=      5-min Rain = 0
KES1 090722Z 27002KT M03/M08 A3034 RMK A01 T10291082  RH  067%=      5-min Rain = 0
KES1 090723Z 27002KT M03/M08 A3034 RMK A01 T10291082  RH  067%=      5-min Rain = 0
KES1 090724Z 27002KT M03/M08 A3034 RMK A01 T10291082  RH  067%=      5-min Rain = 0
KES1 090725Z 28003KT M03/M08 A3034 RMK A01 T10291082  RH  067%=      5-min Rain = 0
KES1 090726Z 28003KT M03/M08 A3034 RMK A01 T10291082  RH  067%=      5-min Rain = 0
KES1 090727Z 28002KT M03/M08 A3034 RMK A01 T10291082  RH  067%=      5-min Rain = 0
KES1 090728Z 29003KT M03/M08 A3034 RMK A01 T10291081  RH  067%=      5-min Rain = 0
KES1 090729Z 29003KT M03/M08 A3034 RMK A01 T10291082  RH  067%=      5-min Rain = 0
KES1 090730Z 30003KT M03/M08 A3033 RMK A01 T10291082  RH  067%=      5-min Rain = 0
KES1 090731Z 29003KT M03/M08 A3033 RMK A01 T10281082  RH  066%=      5-min Rain = 0
KES1 090732Z 30003KT M03/M08 A3033 RMK A01 T10271083  RH  066%=      5-min Rain = 0
KES1 090733Z 30002KT M03/M08 A3033 RMK A01 T10271083  RH  065%=      5-min Rain = 0
KES1 090734Z 30003KT M03/M08 A3033 RMK A01 T10271084  RH  065%=      5-min Rain = 0
KES1 090735Z 30003KT M03/M08 A3033 RMK A01 T10261083  RH  065%=      5-min Rain = 0
KES1 090736Z 30003KT M03/M08 A3033 RMK A01 T10261084  RH  065%=      5-min Rain = 0
KES1 090737Z 30003KT M03/M09 A3033 RMK A01 T10261085  RH  064%=      5-min Rain = 0
KES1 090738Z 30003KT M03/M09 A3033 RMK A01 T10261085  RH  064%=      5-min Rain = 0
KES1 090739Z 30003KT M03/M09 A3033 RMK A01 T10251085  RH  064%=      5-min Rain = 0
KES1 090740Z 30003KT M03/M09 A3033 RMK A01 T10261085  RH  064%=      5-min Rain = 0
KES1 090741Z 28002KT M03/M09 A3033 RMK A01 T10261085  RH  064%=      5-min Rain = 0
KES1 090742Z 28002KT M03/M09 A3033 RMK A01 T10261085  RH  064%=      5-min Rain = 0
KES1 090743Z 29003KT M03/M09 A3033 RMK A01 T10251085  RH  064%=      5-min Rain = 0
KES1 090744Z 28002KT M03/M09 A3033 RMK A01 T10251085  RH  064%=      5-min Rain = 0
KES1 090745Z 28003KT M03/M09 A3033 RMK A01 T10251085  RH  064%=      5-min Rain = 0
KES1 090746Z 27003KT M03/M09 A3033 RMK A01 T10261085  RH  064%=      5-min Rain = 0
KES1 090747Z 27002KT M03/M09 A3033 RMK A01 T10251085  RH  064%=      5-min Rain = 0
KES1 090748Z 26003KT M03/M08 A3033 RMK A01 T10251084  RH  064%=      5-min Rain = 0
KES1 090749Z 27003KT M03/M08 A3033 RMK A01 T10261084  RH  064%=      5-min Rain = 0
KES1 090750Z 26003KT M03/M08 A3033 RMK A01 T10261084  RH  064%=      5-min Rain = 0
KES1 090751Z 27003KT M03/M08 A3033 RMK A01 T10261084  RH  065%=      5-min Rain = 0
KES1 090752Z 25003KT M03/M08 A3033 RMK A01 T10261083  RH  065%=      5-min Rain = 0
KES1 090753Z 25004KT M03/M08 A3033 RMK A01 T10271083  RH  066%=      5-min Rain = 0
KES1 090754Z 25004KT M03/M08 A3033 RMK A01 T10271081  RH  066%=      5-min Rain = 0
KES1 090755Z 25003KT M03/M08 A3033 RMK A01 T10281081  RH  067%=      5-min Rain = 0
KES1 090756Z 26004KT M03/M08 A3033 RMK A01 T10291080  RH  068%=      5-min Rain = 0
KES1 090757Z 26004KT M03/M08 A3033 RMK A01 T10291080  RH  068%=      5-min Rain = 0
KES1 090758Z 25003KT M03/M08 A3033 RMK A01 T10301079  RH  069%=      5-min Rain = 0
KES1 090759Z 25003KT M03/M08 A3033 RMK A01 T10311079  RH  069%=      5-min Rain = 0
KES1 090800Z 25003KT M03/M08 A3033 RMK A01 T10311079  RH  070%=      5-min Rain = 0
KES1 090801Z 24003KT M03/M08 A3033 RMK A01 T10311078  RH  070%=      5-min Rain = 0
KES1 090802Z 24003KT M03/M08 A3033 RMK A01 T10311077  RH  070%=      5-min Rain = 0
KES1 090803Z 25003KT M03/M08 A3033 RMK A01 T10321077  RH  071%=      5-min Rain = 0
KES1 090804Z 25003KT M03/M08 A3033 RMK A01 T10321077  RH  071%=      5-min Rain = 0
KES1 090805Z 24003KT M03/M08 A3033 RMK A01 T10321076  RH  071%=      5-min Rain = 0
KES1 090806Z 25003KT M03/M08 A3033 RMK A01 T10321075  RH  072%=      5-min Rain = 0
KES1 090807Z 24003KT M03/M08 A3033 RMK A01 T10321075  RH  072%=      5-min Rain = 0
KES1 090808Z 24003KT M03/M07 A3033 RMK A01 T10331074  RH  073%=      5-min Rain = 0
KES1 090809Z 25003KT M03/M07 A3033 RMK A01 T10331074  RH  073%=      5-min Rain = 0
KES1 090810Z 25003KT M03/M07 A3033 RMK A01 T10331074  RH  073%=      5-min Rain = 0
KES1 090811Z 25004KT M03/M07 A3033 RMK A01 T10331073  RH  074%=      5-min Rain = 0
KES1 090812Z 25004KT M03/M07 A3033 RMK A01 T10331073  RH  074%=      5-min Rain = 0
KES1 090813Z 26004KT M03/M07 A3033 RMK A01 T10341072  RH  075%=      5-min Rain = 0
KES1 090814Z 26004KT M04/M07 A3033 RMK A01 T10351072  RH  075%=      5-min Rain = 0
KES1 090815Z 26004KT M04/M07 A3033 RMK A01 T10351072  RH  076%=      5-min Rain = 0
KES1 090816Z 26004KT M04/M07 A3033 RMK A01 T10361071  RH  076%=      5-min Rain = 0
KES1 090817Z 26004KT M04/M07 A3033 RMK A01 T10351071  RH  076%=      5-min Rain = 0
KES1 090818Z 26004KT M04/M07 A3033 RMK A01 T10361071  RH  077%=      5-min Rain = 0
KES1 090819Z 25004KT M04/M07 A3033 RMK A01 T10361071  RH  077%=      5-min Rain = 0
KES1 090820Z 25004KT M04/M07 A3033 RMK A01 T10361071  RH  077%=      5-min Rain = 0
KES1 090821Z 25004KT M04/M07 A3033 RMK A01 T10371070  RH  077%=      5-min Rain = 0
KES1 090822Z 25004KT M04/M07 A3034 RMK A01 T10371070  RH  078%=      5-min Rain = 0
KES1 090823Z 25004KT M04/M07 A3034 RMK A01 T10371070  RH  078%=      5-min Rain = 0
KES1 090824Z 25005KT M04/M07 A3034 RMK A01 T10381071  RH  078%=      5-min Rain = 0
KES1 090825Z 25004KT M04/M07 A3034 RMK A01 T10381070  RH  079%=      5-min Rain = 0
KES1 090826Z 25005KT M04/M07 A3034 RMK A01 T10381069  RH  079%=      5-min Rain = 0
KES1 090827Z 26004KT M04/M07 A3034 RMK A01 T10381069  RH  079%=      5-min Rain = 0
KES1 090828Z 26004KT M04/M07 A3034 RMK A01 T10381069  RH  079%=      5-min Rain = 0
KES1 090829Z 26004KT M04/M07 A3034 RMK A01 T10381069  RH  079%=      5-min Rain = 0
KES1 090830Z 26004KT M04/M07 A3034 RMK A01 T10381069  RH  079%=      5-min Rain = 0
KES1 090831Z 25004KT M04/M07 A3034 RMK A01 T10381069  RH  079%=      5-min Rain = 0
KES1 090832Z 25004KT M04/M07 A3034 RMK A01 T10381069  RH  079%=      5-min Rain = 0
KES1 090833Z 25004KT M04/M07 A3034 RMK A01 T10381069  RH  079%=      5-min Rain = 0
KES1 090834Z 25003KT M04/M07 A3034 RMK A01 T10381069  RH  079%=      5-min Rain = 0
KES1 090835Z 26004KT M04/M07 A3034 RMK A01 T10381069  RH  079%=      5-min Rain = 0
KES1 090836Z 26003KT M04/M07 A3034 RMK A01 T10381069  RH  079%=      5-min Rain = 0
KES1 090837Z 26003KT M04/M07 A3034 RMK A01 T10381069  RH  079%=      5-min Rain = 0
KES1 090838Z 26003KT M04/M07 A3034 RMK A01 T10381069  RH  079%=      5-min Rain = 0
KES1 090839Z 26003KT M04/M07 A3033 RMK A01 T10381069  RH  079%=      5-min Rain = 0
KES1 090840Z 26003KT M04/M07 A3033 RMK A01 T10381069  RH  079%=      5-min Rain = 0
KES1 090841Z 26003KT M04/M07 A3033 RMK A01 T10381069  RH  079%=      5-min Rain = 0
KES1 090842Z 26003KT M04/M07 A3033 RMK A01 T10381068  RH  080%=      5-min Rain = 0
KES1 090843Z 26003KT M04/M07 A3034 RMK A01 T10381068  RH  080%=      5-min Rain = 0
KES1 090844Z 26003KT M04/M07 A3034 RMK A01 T10381068  RH  080%=      5-min Rain = 0
KES1 090845Z 26004KT M04/M07 A3034 RMK A01 T10391068  RH  080%=      5-min Rain = 0
KES1 090846Z 25004KT M04/M07 A3034 RMK A01 T10391068  RH  080%=      5-min Rain = 0
KES1 090847Z 26004KT M04/M07 A3034 RMK A01 T10391068  RH  080%=      5-min Rain = 0
KES1 090848Z 26004KT M04/M07 A3034 RMK A01 T10391068  RH  081%=      5-min Rain = 0
KES1 090849Z 26004KT M04/M07 A3034 RMK A01 T10401068  RH  081%=      5-min Rain = 0
KES1 090850Z 26004KT M04/M07 A3034 RMK A01 T10401068  RH  081%=      5-min Rain = 0
KES1 090851Z 26004KT M04/M07 A3034 RMK A01 T10401068  RH  081%=      5-min Rain = 0
KES1 090852Z 27004KT M04/M07 A3033 RMK A01 T10401068  RH  081%=      5-min Rain = 0
KES1 090853Z 27003KT M04/M07 A3033 RMK A01 T10391067  RH  081%=      5-min Rain = 0
KES1 090854Z 27004KT M04/M07 A3033 RMK A01 T10381067  RH  081%=      5-min Rain = 0
KES1 090855Z 27004KT M04/M07 A3033 RMK A01 T10381067  RH  080%=      5-min Rain = 0
KES1 090856Z 27004KT M04/M07 A3033 RMK A01 T10381067  RH  080%=      5-min Rain = 0
KES1 090857Z 27004KT M04/M07 A3033 RMK A01 T10381067  RH  080%=      5-min Rain = 0
KES1 090858Z 27004KT M04/M07 A3033 RMK A01 T10371066  RH  080%=      5-min Rain = 0
KES1 090859Z 27004KT M04/M07 A3033 RMK A01 T10371067  RH  080%=      5-min Rain = 0
KES1 090900Z 27004KT M04/M07 A3034 RMK A01 T10371067  RH  080%=      5-min Rain = 0
KES1 090901Z 27004KT M04/M07 A3034 RMK A01 T10381067  RH  080%=      5-min Rain = 0
KES1 090902Z 27004KT M04/M07 A3034 RMK A01 T10381068  RH  080%=      5-min Rain = 0
KES1 090903Z 27004KT M04/M07 A3034 RMK A01 T10381068  RH  079%=      5-min Rain = 0
KES1 090904Z 27004KT M04/M07 A3034 RMK A01 T10381068  RH  079%=      5-min Rain = 0
KES1 090905Z 27004KT M04/M07 A3034 RMK A01 T10381068  RH  079%=      5-min Rain = 0
KES1 090906Z 28004KT M04/M07 A3034 RMK A01 T10371068  RH  079%=      5-min Rain = 0
KES1 090907Z 28004KT M04/M07 A3034 RMK A01 T10361068  RH  079%=      5-min Rain = 0
KES1 090908Z 27004KT M04/M07 A3034 RMK A01 T10351068  RH  078%=      5-min Rain = 0
KES1 090909Z 28004KT M03/M07 A3034 RMK A01 T10341068  RH  077%=      5-min Rain = 0
KES1 090910Z 27004KT M03/M07 A3034 RMK A01 T10341068  RH  077%=      5-min Rain = 0
KES1 090911Z 26004KT M03/M07 A3034 RMK A01 T10341069  RH  077%=      5-min Rain = 0
KES1 090912Z 26003KT M03/M07 A3034 RMK A01 T10341069  RH  077%=      5-min Rain = 0
KES1 090913Z 27003KT M04/M07 A3034 RMK A01 T10351069  RH  077%=      5-min Rain = 0
KES1 090914Z 27003KT M04/M07 A3034 RMK A01 T10351069  RH  077%=      5-min Rain = 0
KES1 090915Z 28003KT M04/M07 A3034 RMK A01 T10361069  RH  078%=      5-min Rain = 0
KES1 090916Z 27003KT M04/M07 A3034 RMK A01 T10361069  RH  078%=      5-min Rain = 0
KES1 090917Z 27003KT M04/M07 A3034 RMK A01 T10361070  RH  078%=      5-min Rain = 0
KES1 090918Z 28004KT M04/M07 A3034 RMK A01 T10361070  RH  077%=      5-min Rain = 0
KES1 090919Z 28004KT M04/M07 A3034 RMK A01 T10361070  RH  077%=      5-min Rain = 0
KES1 090920Z 29004KT M04/M07 A3034 RMK A01 T10361071  RH  077%=      5-min Rain = 0
KES1 090921Z 29004KT M04/M07 A3034 RMK A01 T10361071  RH  077%=      5-min Rain = 0
KES1 090922Z 29004KT M04/M07 A3034 RMK A01 T10361072  RH  076%=      5-min Rain = 0
KES1 090923Z 28004KT M04/M07 A3034 RMK A01 T10351073  RH  075%=      5-min Rain = 0
KES1 090924Z 28004KT M04/M07 A3034 RMK A01 T10351073  RH  075%=      5-min Rain = 0
KES1 090925Z 28004KT M03/M07 A3034 RMK A01 T10341073  RH  074%=      5-min Rain = 0
KES1 090926Z 28006KT M03/M07 A3034 RMK A01 T10341074  RH  074%=      5-min Rain = 0
KES1 090927Z 28004KT M03/M07 A3034 RMK A01 T10331074  RH  073%=      5-min Rain = 0
KES1 090928Z 28004KT M03/M07 A3034 RMK A01 T10321074  RH  073%=      5-min Rain = 0
KES1 090929Z 29004KT M03/M07 A3034 RMK A01 T10321074  RH  073%=      5-min Rain = 0
KES1 090930Z 28004KT M03/M08 A3034 RMK A01 T10331075  RH  073%=      5-min Rain = 0
KES1 090931Z 28005KT M03/M07 A3034 RMK A01 T10331074  RH  073%=      5-min Rain = 0
KES1 090932Z 28004KT M03/M08 A3034 RMK A01 T10331075  RH  073%=      5-min Rain = 0
KES1 090933Z 28004KT M03/M08 A3034 RMK A01 T10341075  RH  073%=      5-min Rain = 0
KES1 090934Z 29004KT M03/M08 A3034 RMK A01 T10331075  RH  073%=      5-min Rain = 0
KES1 090935Z 29005KT M03/M08 A3034 RMK A01 T10321076  RH  072%=      5-min Rain = 0
KES1 090936Z 29005KT M03/M08 A3034 RMK A01 T10321076  RH  071%=      5-min Rain = 0
KES1 090937Z 29005KT M03/M08 A3034 RMK A01 T10311076  RH  071%=      5-min Rain = 0
KES1 090938Z 28004KT M03/M08 A3034 RMK A01 T10311076  RH  071%=      5-min Rain = 0
KES1 090939Z 28004KT M03/M08 A3034 RMK A01 T10311075  RH  071%=      5-min Rain = 0
KES1 090940Z 27004KT M03/M08 A3034 RMK A01 T10321075  RH  072%=      5-min Rain = 0
KES1 090941Z 27004KT M03/M08 A3034 RMK A01 T10321075  RH  072%=      5-min Rain = 0
KES1 090942Z 28004KT M03/M08 A3034 RMK A01 T10331075  RH  073%=      5-min Rain = 0
KES1 090943Z 27004KT M03/M08 A3034 RMK A01 T10341075  RH  073%=      5-min Rain = 0
KES1 090944Z 27004KT M04/M08 A3034 RMK A01 T10351075  RH  074%=      5-min Rain = 0
KES1 090945Z 28004KT M04/M08 A3034 RMK A01 T10351075  RH  074%=      5-min Rain = 0
KES1 090946Z 28004KT M04/M07 A3034 RMK A01 T10351074  RH  075%=      5-min Rain = 0
KES1 090947Z 28004KT M04/M07 A3034 RMK A01 T10351074  RH  075%=      5-min Rain = 0
KES1 090948Z 29004KT M04/M07 A3033 RMK A01 T10351074  RH  075%=      5-min Rain = 0
KES1 090949Z 28003KT M03/M07 A3033 RMK A01 T10341073  RH  075%=      5-min Rain = 0
KES1 090950Z 28004KT M03/M07 A3033 RMK A01 T10341073  RH  075%=      5-min Rain = 0
KES1 090951Z 27003KT M03/M07 A3033 RMK A01 T10341073  RH  074%=      5-min Rain = 0
KES1 090952Z 27003KT M04/M07 A3033 RMK A01 T10351073  RH  075%=      5-min Rain = 0
KES1 090953Z 27003KT M04/M07 A3033 RMK A01 T10361073  RH  075%=      5-min Rain = 0
KES1 090954Z 27003KT M04/M07 A3033 RMK A01 T10361072  RH  076%=      5-min Rain = 0
KES1 090955Z 27003KT M04/M07 A3033 RMK A01 T10371072  RH  076%=      5-min Rain = 0
KES1 090956Z 28003KT M04/M07 A3033 RMK A01 T10371072  RH  077%=      5-min Rain = 0
KES1 090957Z 28003KT M04/M07 A3033 RMK A01 T10381072  RH  077%=      5-min Rain = 0
KES1 090958Z 28003KT M04/M07 A3033 RMK A01 T10381071  RH  078%=      5-min Rain = 0
KES1 090959Z 29003KT M04/M07 A3033 RMK A01 T10381071  RH  078%=      5-min Rain = 0
KES1 091000Z 28003KT M04/M07 A3033 RMK A01 T10381071  RH  078%=      5-min Rain = 0
KES1 091001Z 28002KT M04/M07 A3033 RMK A01 T10371071  RH  077%=      5-min Rain = 0
KES1 091002Z 28003KT M04/M07 A3033 RMK A01 T10371072  RH  077%=      5-min Rain = 0
KES1 091003Z 27003KT M04/M07 A3033 RMK A01 T10371072  RH  077%=      5-min Rain = 0
KES1 091004Z 27002KT M04/M07 A3033 RMK A01 T10371071  RH  077%=      5-min Rain = 0
KES1 091005Z 27002KT M04/M07 A3033 RMK A01 T10371071  RH  077%=      5-min Rain = 0
KES1 091006Z 29003KT M04/M07 A3033 RMK A01 T10371071  RH  077%=      5-min Rain = 0
KES1 091007Z 29003KT M04/M07 A3033 RMK A01 T10371071  RH  077%=      5-min Rain = 0
KES1 091008Z 28003KT M04/M07 A3033 RMK A01 T10371072  RH  077%=      5-min Rain = 0
KES1 091009Z 28004KT M04/M07 A3033 RMK A01 T10371073  RH  076%=      5-min Rain = 0
KES1 091010Z 27003KT M04/M07 A3033 RMK A01 T10371073  RH  076%=      5-min Rain = 0
KES1 091011Z 28003KT M04/M07 A3033 RMK A01 T10371073  RH  076%=      5-min Rain = 0
KES1 091012Z 28004KT M04/M07 A3033 RMK A01 T10371073  RH  076%=      5-min Rain = 0
KES1 091013Z 28004KT M04/M07 A3033 RMK A01 T10371074  RH  075%=      5-min Rain = 0
KES1 091014Z 28003KT M04/M07 A3033 RMK A01 T10371074  RH  075%=      5-min Rain = 0
KES1 091015Z 28004KT M04/M07 A3033 RMK A01 T10371074  RH  075%=      5-min Rain = 0
KES1 091016Z 29004KT M04/M08 A3033 RMK A01 T10371075  RH  075%=      5-min Rain = 0
KES1 091017Z 28004KT M04/M08 A3033 RMK A01 T10371075  RH  075%=      5-min Rain = 0
KES1 091018Z 29005KT M04/M08 A3033 RMK A01 T10361075  RH  074%=      5-min Rain = 0
KES1 091019Z 29005KT M04/M08 A3033 RMK A01 T10361076  RH  074%=      5-min Rain = 0
KES1 091020Z 29005KT M04/M08 A3034 RMK A01 T10371076  RH  074%=      5-min Rain = 0
KES1 091021Z 28005KT M04/M08 A3034 RMK A01 T10371076  RH  074%=      5-min Rain = 0
KES1 091022Z 28005KT M04/M08 A3034 RMK A01 T10371076  RH  074%=      5-min Rain = 0
KES1 091023Z 29004KT M04/M08 A3034 RMK A01 T10371076  RH  074%=      5-min Rain = 0
KES1 091024Z 28004KT M04/M08 A3034 RMK A01 T10371076  RH  075%=      5-min Rain = 0
KES1 091025Z 29004KT M04/M08 A3034 RMK A01 T10371076  RH  075%=      5-min Rain = 0
KES1 091026Z 29004KT M04/M08 A3034 RMK A01 T10371076  RH  074%=      5-min Rain = 0
KES1 091027Z 29004KT M04/M08 A3034 RMK A01 T10371076  RH  074%=      5-min Rain = 0
KES1 091028Z 29005KT M04/M08 A3034 RMK A01 T10361076  RH  074%=      5-min Rain = 0
KES1 091029Z 29005KT M04/M08 A3034 RMK A01 T10351075  RH  074%=      5-min Rain = 0
KES1 091030Z 29004KT M03/M08 A3034 RMK A01 T10341075  RH  073%=      5-min Rain = 0
KES1 091031Z 29004KT M03/M08 A3034 RMK A01 T10341075  RH  073%=      5-min Rain = 0
KES1 091032Z 29004KT M03/M08 A3034 RMK A01 T10341076  RH  073%=      5-min Rain = 0
KES1 091033Z 30004KT M03/M08 A3034 RMK A01 T10341076  RH  073%=      5-min Rain = 0
KES1 091034Z 29004KT M03/M08 A3034 RMK A01 T10341076  RH  073%=      5-min Rain = 0
KES1 091035Z 29004KT M03/M08 A3034 RMK A01 T10341075  RH  073%=      5-min Rain = 0
KES1 091036Z 28004KT M04/M08 A3034 RMK A01 T10351076  RH  073%=      5-min Rain = 0
KES1 091037Z 27004KT M04/M08 A3034 RMK A01 T10351076  RH  073%=      5-min Rain = 0
KES1 091038Z 27003KT M04/M08 A3034 RMK A01 T10361077  RH  073%=      5-min Rain = 0
KES1 091039Z 28004KT M04/M08 A3034 RMK A01 T10361077  RH  073%=      5-min Rain = 0
KES1 091040Z 27004KT M04/M08 A3034 RMK A01 T10361078  RH  073%=      5-min Rain = 0
KES1 091041Z 28004KT M04/M08 A3034 RMK A01 T10361078  RH  073%=      5-min Rain = 0
KES1 091042Z 28003KT M04/M08 A3034 RMK A01 T10361078  RH  073%=      5-min Rain = 0
KES1 091043Z 28003KT M04/M08 A3034 RMK A01 T10361078  RH  072%=      5-min Rain = 0
KES1 091044Z 29003KT M04/M08 A3033 RMK A01 T10361079  RH  072%=      5-min Rain = 0
KES1 091045Z 30002KT M04/M08 A3033 RMK A01 T10361078  RH  072%=      5-min Rain = 0
KES1 091046Z 29003KT M04/M08 A3033 RMK A01 T10361078  RH  072%=      5-min Rain = 0
KES1 091047Z 29004KT M04/M08 A3033 RMK A01 T10361079  RH  072%=      5-min Rain = 0
KES1 091048Z 29005KT M04/M08 A3033 RMK A01 T10351080  RH  071%=      5-min Rain = 0
KES1 091049Z 28005KT M03/M08 A3033 RMK A01 T10341081  RH  070%=      5-min Rain = 0
KES1 091050Z 29003KT M03/M08 A3033 RMK A01 T10331080  RH  070%=      5-min Rain = 0
KES1 091051Z 29003KT M03/M08 A3034 RMK A01 T10331080  RH  070%=      5-min Rain = 0
KES1 091052Z 29003KT M04/M08 A3034 RMK A01 T10351080  RH  071%=      5-min Rain = 0
KES1 091053Z 28004KT M04/M08 A3034 RMK A01 T10351080  RH  071%=      5-min Rain = 0
KES1 091054Z 29004KT M04/M08 A3034 RMK A01 T10351080  RH  071%=      5-min Rain = 0
KES1 091055Z 30004KT M04/M08 A3034 RMK A01 T10361080  RH  071%=      5-min Rain = 0
KES1 091056Z 29004KT M04/M08 A3034 RMK A01 T10351081  RH  071%=      5-min Rain = 0
KES1 091057Z 29004KT M04/M08 A3034 RMK A01 T10351081  RH  070%=      5-min Rain = 0
KES1 091058Z 29003KT M04/M08 A3034 RMK A01 T10351081  RH  070%=      5-min Rain = 0
KES1 091059Z 29003KT M04/M08 A3034 RMK A01 T10351081  RH  070%=      5-min Rain = 0
KES1 091100Z 29003KT M04/M08 A3034 RMK A01 T10361082  RH  070%=      5-min Rain = 0
KES1 091101Z 30004KT M04/M08 A3034 RMK A01 T10361082  RH  070%=      5-min Rain = 0
KES1 091102Z 29004KT M04/M08 A3034 RMK A01 T10351082  RH  070%=      5-min Rain = 0
KES1 091103Z 29004KT M04/M08 A3034 RMK A01 T10351082  RH  070%=      5-min Rain = 0
KES1 091104Z 29004KT M04/M08 A3034 RMK A01 T10351082  RH  070%=      5-min Rain = 0
KES1 091105Z 29003KT M04/M08 A3034 RMK A01 T10351082  RH  070%=      5-min Rain = 0
KES1 091106Z 29004KT M04/M08 A3034 RMK A01 T10361082  RH  070%=      5-min Rain = 0
KES1 091107Z 29004KT M04/M08 A3034 RMK A01 T10371082  RH  071%=      5-min Rain = 0
KES1 091108Z 29003KT M04/M08 A3034 RMK A01 T10371082  RH  071%=      5-min Rain = 0
KES1 091109Z 29003KT M04/M08 A3034 RMK A01 T10371082  RH  071%=      5-min Rain = 0
KES1 091110Z 29003KT M04/M08 A3034 RMK A01 T10371082  RH  071%=      5-min Rain = 0
KES1 091111Z 29004KT M04/M08 A3034 RMK A01 T10371083  RH  071%=      5-min Rain = 0
KES1 091112Z 29003KT M04/M08 A3034 RMK A01 T10371083  RH  071%=      5-min Rain = 0
KES1 091113Z 29004KT M04/M08 A3034 RMK A01 T10371083  RH  071%=      5-min Rain = 0
KES1 091114Z 29003KT M04/M08 A3034 RMK A01 T10371083  RH  071%=      5-min Rain = 0
KES1 091115Z 30003KT M04/M08 A3034 RMK A01 T10371083  RH  071%=      5-min Rain = 0
KES1 091116Z 30003KT M04/M08 A3034 RMK A01 T10371083  RH  071%=      5-min Rain = 0
KES1 091117Z 30004KT M04/M08 A3034 RMK A01 T10371083  RH  071%=      5-min Rain = 0
KES1 091118Z 30004KT M04/M08 A3034 RMK A01 T10371083  RH  071%=      5-min Rain = 0
KES1 091119Z 29003KT M04/M08 A3034 RMK A01 T10371084  RH  070%=      5-min Rain = 0
KES1 091120Z 29003KT M04/M09 A3034 RMK A01 T10361085  RH  069%=      5-min Rain = 0
KES1 091121Z 30004KT M04/M09 A3034 RMK A01 T10361085  RH  069%=      5-min Rain = 0
KES1 091122Z 30004KT M04/M09 A3034 RMK A01 T10361085  RH  069%=      5-min Rain = 0
KES1 091123Z 29004KT M04/M09 A3034 RMK A01 T10361085  RH  069%=      5-min Rain = 0
KES1 091124Z 29004KT M04/M09 A3034 RMK A01 T10361085  RH  069%=      5-min Rain = 0
KES1 091125Z 29004KT M04/M09 A3034 RMK A01 T10361085  RH  069%=      5-min Rain = 0
KES1 091126Z 29003KT M04/M09 A3034 RMK A01 T10361085  RH  069%=      5-min Rain = 0
KES1 091127Z 30004KT M04/M08 A3034 RMK A01 T10361084  RH  069%=      5-min Rain = 0
KES1 091128Z 30004KT M04/M08 A3034 RMK A01 T10361084  RH  070%=      5-min Rain = 0
KES1 091129Z 30004KT M04/M08 A3034 RMK A01 T10361083  RH  070%=      5-min Rain = 0
KES1 091130Z 29004KT M04/M08 A3034 RMK A01 T10361083  RH  070%=      5-min Rain = 0
KES1 091131Z 30004KT M04/M08 A3034 RMK A01 T10361083  RH  070%=      5-min Rain = 0
KES1 091132Z 29004KT M04/M08 A3034 RMK A01 T10371083  RH  070%=      5-min Rain = 0
KES1 091133Z 29004KT M04/M08 A3034 RMK A01 T10361083  RH  070%=      5-min Rain = 0
KES1 091134Z 30004KT M04/M08 A3034 RMK A01 T10361084  RH  070%=      5-min Rain = 0
KES1 091135Z 29004KT M04/M08 A3034 RMK A01 T10361084  RH  070%=      5-min Rain = 0
KES1 091136Z 29003KT M04/M08 A3034 RMK A01 T10361084  RH  070%=      5-min Rain = 0
KES1 091137Z 30004KT M04/M08 A3034 RMK A01 T10371084  RH  070%=      5-min Rain = 0
KES1 091138Z 29003KT M04/M08 A3034 RMK A01 T10371083  RH  070%=      5-min Rain = 0
KES1 091139Z 29004KT M04/M08 A3034 RMK A01 T10361082  RH  070%=      5-min Rain = 0
KES1 091140Z 29004KT M04/M08 A3035 RMK A01 T10361083  RH  070%=      5-min Rain = 0
KES1 091141Z 29004KT M04/M08 A3035 RMK A01 T10371084  RH  070%=      5-min Rain = 0
KES1 091142Z 28004KT M04/M08 A3035 RMK A01 T10371084  RH  070%=      5-min Rain = 0
KES1 091143Z 28003KT M04/M08 A3035 RMK A01 T10381084  RH  070%=      5-min Rain = 0
KES1 091144Z 27003KT M04/M08 A3035 RMK A01 T10391084  RH  071%=      5-min Rain = 0
KES1 091145Z 27003KT M04/M08 A3035 RMK A01 T10401084  RH  071%=      5-min Rain = 0
KES1 091146Z 27003KT M04/M08 A3035 RMK A01 T10411084  RH  072%=      5-min Rain = 0
KES1 091147Z 26003KT M04/M08 A3035 RMK A01 T10411084  RH  072%=      5-min Rain = 0
KES1 091148Z 26004KT M04/M08 A3035 RMK A01 T10411084  RH  072%=      5-min Rain = 0
KES1 091149Z 27003KT M04/M08 A3035 RMK A01 T10411084  RH  072%=      5-min Rain = 0
KES1 091150Z 27003KT M04/M08 A3035 RMK A01 T10401084  RH  072%=      5-min Rain = 0
KES1 091151Z 27003KT M04/M08 A3035 RMK A01 T10401084  RH  072%=      5-min Rain = 0
KES1 091152Z 27003KT M04/M08 A3035 RMK A01 T10411083  RH  072%=      5-min Rain = 0
KES1 091153Z 27003KT M04/M08 A3035 RMK A01 T10411083  RH  073%=      5-min Rain = 0
KES1 091154Z 26003KT M04/M08 A3035 RMK A01 T10411083  RH  073%=      5-min Rain = 0
KES1 091155Z 26003KT M04/M08 A3035 RMK A01 T10421083  RH  073%=      5-min Rain = 0
KES1 091156Z 27003KT M04/M08 A3035 RMK A01 T10421083  RH  073%=      5-min Rain = 0
KES1 091157Z 26003KT M04/M08 A3035 RMK A01 T10421082  RH  074%=      5-min Rain = 0
KES1 091158Z 25003KT M04/M08 A3035 RMK A01 T10431083  RH  074%=      5-min Rain = 0
KES1 091159Z 26003KT M04/M08 A3035 RMK A01 T10431083  RH  074%=      5-min Rain = 0
KES1 091200Z 25002KT M04/M08 A3035 RMK A01 T10431083  RH  074%=      5-min Rain = 0
KES1 091201Z 24003KT M04/M08 A3035 RMK A01 T10431083  RH  074%=      5-min Rain = 0
KES1 091202Z 24003KT M04/M08 A3035 RMK A01 T10421082  RH  074%=      5-min Rain = 0
KES1 091203Z 24002KT M04/M08 A3035 RMK A01 T10421082  RH  074%=      5-min Rain = 0
KES1 091204Z 24002KT M04/M08 A3035 RMK A01 T10421082  RH  074%=      5-min Rain = 0
KES1 091205Z 23003KT M04/M08 A3035 RMK A01 T10421082  RH  074%=      5-min Rain = 0
KES1 091206Z 24003KT M04/M08 A3035 RMK A01 T10421082  RH  074%=      5-min Rain = 0
KES1 091207Z 24003KT M04/M08 A3035 RMK A01 T10421081  RH  075%=      5-min Rain = 0
KES1 091208Z 26003KT M04/M08 A3035 RMK A01 T10431081  RH  075%=      5-min Rain = 0
KES1 091209Z 26003KT M04/M08 A3035 RMK A01 T10431081  RH  075%=      5-min Rain = 0
KES1 091210Z 25003KT M04/M08 A3035 RMK A01 T10431082  RH  075%=      5-min Rain = 0
KES1 091211Z 29002KT M04/M08 A3035 RMK A01 T10431082  RH  074%=      5-min Rain = 0
KES1 091212Z 25002KT M04/M08 A3035 RMK A01 T10431082  RH  074%=      5-min Rain = 0
KES1 091213Z 26002KT M04/M08 A3035 RMK A01 T10421082  RH  073%=      5-min Rain = 0
KES1 091214Z 26002KT M04/M08 A3035 RMK A01 T10411082  RH  073%=      5-min Rain = 0
KES1 091215Z 25003KT M04/M08 A3035 RMK A01 T10411082  RH  073%=      5-min Rain = 0
KES1 091216Z 26002KT M04/M08 A3035 RMK A01 T10401082  RH  072%=      5-min Rain = 0
KES1 091217Z 25003KT M04/M08 A3035 RMK A01 T10401083  RH  072%=      5-min Rain = 0
KES1 091218Z 25003KT M04/M08 A3035 RMK A01 T10401083  RH  072%=      5-min Rain = 0
KES1 091219Z 25003KT M04/M08 A3035 RMK A01 T10401083  RH  072%=      5-min Rain = 0
KES1 091220Z 25003KT M04/M08 A3035 RMK A01 T10391082  RH  072%=      5-min Rain = 0
KES1 091221Z 25003KT M04/M08 A3035 RMK A01 T10391083  RH  072%=      5-min Rain = 0
KES1 091222Z 25003KT M04/M08 A3035 RMK A01 T10401083  RH  072%=      5-min Rain = 0
KES1 091223Z 25003KT M04/M08 A3035 RMK A01 T10391083  RH  071%=      5-min Rain = 0
KES1 091224Z 25003KT M04/M08 A3035 RMK A01 T10401084  RH  071%=      5-min Rain = 0
KES1 091225Z 24003KT M04/M08 A3035 RMK A01 T10401084  RH  071%=      5-min Rain = 0
KES1 091226Z 25002KT M04/M08 A3035 RMK A01 T10391084  RH  071%=      5-min Rain = 0
KES1 091227Z 25002KT M04/M08 A3035 RMK A01 T10391084  RH  071%=      5-min Rain = 0
KES1 091228Z 25002KT M04/M09 A3035 RMK A01 T10391085  RH  071%=      5-min Rain = 0
KES1 091229Z 26003KT M04/M09 A3035 RMK A01 T10391085  RH  071%=      5-min Rain = 0
KES1 091230Z 26002KT M04/M09 A3035 RMK A01 T10391085  RH  071%=      5-min Rain = 0
KES1 091231Z 27003KT M04/M08 A3035 RMK A01 T10391084  RH  071%=      5-min Rain = 0
KES1 091232Z 25002KT M04/M08 A3035 RMK A01 T10391084  RH  071%=      5-min Rain = 0
KES1 091233Z 26002KT M04/M09 A3036 RMK A01 T10391085  RH  071%=      5-min Rain = 0
KES1 091234Z 25002KT M04/M09 A3036 RMK A01 T10391085  RH  070%=      5-min Rain = 0
KES1 091235Z 25003KT M04/M08 A3036 RMK A01 T10381084  RH  070%=      5-min Rain = 0
KES1 091236Z 25003KT M04/M09 A3036 RMK A01 T10381085  RH  070%=      5-min Rain = 0
KES1 091237Z 25003KT M04/M08 A3036 RMK A01 T10381084  RH  070%=      5-min Rain = 0
KES1 091238Z 24002KT M04/M09 A3036 RMK A01 T10381085  RH  070%=      5-min Rain = 0
KES1 091239Z 24002KT M04/M08 A3036 RMK A01 T10381084  RH  070%=      5-min Rain = 0
KES1 091240Z 23002KT M04/M08 A3036 RMK A01 T10381084  RH  070%=      5-min Rain = 0
KES1 091241Z 23002KT M04/M08 A3036 RMK A01 T10391084  RH  071%=      5-min Rain = 0
KES1 091242Z 23002KT M04/M08 A3036 RMK A01 T10391084  RH  071%=      5-min Rain = 0
KES1 091243Z 22003KT M04/M08 A3036 RMK A01 T10401084  RH  071%=      5-min Rain = 0
KES1 091244Z 22003KT M04/M08 A3036 RMK A01 T10401084  RH  072%=      5-min Rain = 0
KES1 091245Z 22003KT M04/M08 A3036 RMK A01 T10411083  RH  072%=      5-min Rain = 0
KES1 091246Z 22003KT M04/M08 A3036 RMK A01 T10421083  RH  073%=      5-min Rain = 0
KES1 091247Z 23003KT M04/M08 A3036 RMK A01 T10411083  RH  073%=      5-min Rain = 0
KES1 091248Z 23003KT M04/M08 A3036 RMK A01 T10411082  RH  073%=      5-min Rain = 0
KES1 091249Z 24003KT M04/M08 A3036 RMK A01 T10421082  RH  073%=      5-min Rain = 0
KES1 091250Z 25003KT M04/M08 A3036 RMK A01 T10421082  RH  073%=      5-min Rain = 0
KES1 091251Z 25003KT M04/M08 A3036 RMK A01 T10421083  RH  073%=      5-min Rain = 0
KES1 091252Z 25004KT M04/M08 A3036 RMK A01 T10421083  RH  073%=      5-min Rain = 0
KES1 091253Z 25004KT M04/M08 A3036 RMK A01 T10411083  RH  073%=      5-min Rain = 0
KES1 091254Z 26004KT M04/M08 A3036 RMK A01 T10411083  RH  072%=      5-min Rain = 0
KES1 091255Z 26004KT M04/M08 A3036 RMK A01 T10411083  RH  072%=      5-min Rain = 0
KES1 091256Z 26004KT M04/M08 A3036 RMK A01 T10411083  RH  072%=      5-min Rain = 0
KES1 091257Z 26004KT M04/M08 A3036 RMK A01 T10411083  RH  072%=      5-min Rain = 0
KES1 091258Z 26004KT M04/M08 A3037 RMK A01 T10411084  RH  072%=      5-min Rain = 0
KES1 091259Z 26004KT M04/M08 A3037 RMK A01 T10411084  RH  072%=      5-min Rain = 0
KES1 091300Z 26003KT M04/M08 A3037 RMK A01 T10411084  RH  072%=      5-min Rain = 0
KES1 091301Z 26004KT M04/M08 A3037 RMK A01 T10401084  RH  072%=      5-min Rain = 0
KES1 091302Z 26003KT M04/M08 A3037 RMK A01 T10401084  RH  072%=      5-min Rain = 0
KES1 091303Z 26003KT M04/M08 A3037 RMK A01 T10411084  RH  072%=      5-min Rain = 0
KES1 091304Z 26003KT M04/M08 A3037 RMK A01 T10411084  RH  072%=      5-min Rain = 0
KES1 091305Z 26003KT M04/M08 A3037 RMK A01 T10411084  RH  072%=      5-min Rain = 0
KES1 091306Z 26003KT M04/M08 A3037 RMK A01 T10411084  RH  072%=      5-min Rain = 0
KES1 091307Z 26003KT M04/M08 A3037 RMK A01 T10411084  RH  072%=      5-min Rain = 0
KES1 091308Z 26003KT M04/M08 A3037 RMK A01 T10411084  RH  072%=      5-min Rain = 0
KES1 091309Z 26003KT M04/M08 A3037 RMK A01 T10411083  RH  072%=      5-min Rain = 0
KES1 091310Z 26002KT M04/M08 A3037 RMK A01 T10411083  RH  072%=      5-min Rain = 0
KES1 091311Z 26002KT M04/M08 A3037 RMK A01 T10411083  RH  072%=      5-min Rain = 0
KES1 091312Z 26002KT M04/M08 A3037 RMK A01 T10411083  RH  072%=      5-min Rain = 0
KES1 091313Z 25002KT M04/M08 A3037 RMK A01 T10411083  RH  073%=      5-min Rain = 0
KES1 091314Z 25003KT M04/M08 A3037 RMK A01 T10411083  RH  073%=      5-min Rain = 0
KES1 091315Z 26003KT M04/M08 A3037 RMK A01 T10411083  RH  073%=      5-min Rain = 0
KES1 091316Z 26003KT M04/M08 A3037 RMK A01 T10411083  RH  073%=      5-min Rain = 0
KES1 091317Z 26003KT M04/M08 A3037 RMK A01 T10421083  RH  073%=      5-min Rain = 0
KES1 091318Z 26003KT M04/M08 A3037 RMK A01 T10421082  RH  073%=      5-min Rain = 0
KES1 091319Z 26003KT M04/M08 A3037 RMK A01 T10411082  RH  073%=      5-min Rain = 0
KES1 091320Z 26003KT M04/M08 A3038 RMK A01 T10411082  RH  073%=      5-min Rain = 0
KES1 091321Z 26003KT M04/M08 A3038 RMK A01 T10411082  RH  073%=      5-min Rain = 0
KES1 091322Z 26003KT M04/M08 A3038 RMK A01 T10421082  RH  074%=      5-min Rain = 0
KES1 091323Z 26003KT M04/M08 A3038 RMK A01 T10421082  RH  074%=      5-min Rain = 0
KES1 091324Z 26003KT M04/M08 A3038 RMK A01 T10421082  RH  074%=      5-min Rain = 0
KES1 091325Z 26004KT M04/M08 A3038 RMK A01 T10421082  RH  074%=      5-min Rain = 0
KES1 091326Z 26004KT M04/M08 A3038 RMK A01 T10421082  RH  074%=      5-min Rain = 0
KES1 091327Z 27004KT M04/M08 A3038 RMK A01 T10431082  RH  074%=      5-min Rain = 0
KES1 091328Z 27004KT M04/M08 A3038 RMK A01 T10431082  RH  075%=      5-min Rain = 0
KES1 091329Z 26004KT M04/M08 A3038 RMK A01 T10431081  RH  075%=      5-min Rain = 0
KES1 091330Z 26004KT M04/M08 A3038 RMK A01 T10431081  RH  075%=      5-min Rain = 0
KES1 091331Z 27004KT M04/M08 A3038 RMK A01 T10431081  RH  075%=      5-min Rain = 0
KES1 091332Z 26004KT M04/M08 A3038 RMK A01 T10431081  RH  075%=      5-min Rain = 0
KES1 091333Z 27004KT M04/M08 A3038 RMK A01 T10431081  RH  075%=      5-min Rain = 0
KES1 091334Z 27004KT M04/M08 A3038 RMK A01 T10431081  RH  075%=      5-min Rain = 0
KES1 091335Z 27004KT M04/M08 A3038 RMK A01 T10431081  RH  075%=      5-min Rain = 0
KES1 091336Z 27004KT M04/M08 A3038 RMK A01 T10441082  RH  075%=      5-min Rain = 0
KES1 091337Z 27004KT M04/M08 A3038 RMK A01 T10441082  RH  075%=      5-min Rain = 0
KES1 091338Z 27004KT M05/M08 A3038 RMK A01 T10451082  RH  075%=      5-min Rain = 0
KES1 091339Z 27004KT M05/M08 A3038 RMK A01 T10451082  RH  075%=      5-min Rain = 0
KES1 091340Z 27004KT M05/M08 A3038 RMK A01 T10461082  RH  076%=      5-min Rain = 0
KES1 091341Z 27004KT M05/M08 A3038 RMK A01 T10451081  RH  076%=      5-min Rain = 0
KES1 091342Z 27004KT M05/M08 A3038 RMK A01 T10461081  RH  076%=      5-min Rain = 0
KES1 091343Z 27004KT M05/M08 A3038 RMK A01 T10461081  RH  076%=      5-min Rain = 0
KES1 091344Z 27004KT M05/M08 A3038 RMK A01 T10461081  RH  076%=      5-min Rain = 0
KES1 091345Z 27004KT M05/M08 A3038 RMK A01 T10461081  RH  077%=      5-min Rain = 0
KES1 091346Z 27004KT M05/M08 A3038 RMK A01 T10461081  RH  077%=      5-min Rain = 0
KES1 091347Z 28004KT M05/M08 A3038 RMK A01 T10461080  RH  077%=      5-min Rain = 0
KES1 091348Z 27004KT M05/M08 A3038 RMK A01 T10461080  RH  077%=      5-min Rain = 0
KES1 091349Z 27004KT M05/M08 A3038 RMK A01 T10461081  RH  077%=      5-min Rain = 0
KES1 091350Z 27004KT M05/M08 A3038 RMK A01 T10471081  RH  077%=      5-min Rain = 0
KES1 091351Z 27004KT M05/M08 A3038 RMK A01 T10461080  RH  077%=      5-min Rain = 0
KES1 091352Z 27004KT M05/M08 A3038 RMK A01 T10461080  RH  077%=      5-min Rain = 0
KES1 091353Z 27004KT M05/M08 A3038 RMK A01 T10461079  RH  077%=      5-min Rain = 0
KES1 091354Z 27004KT M05/M08 A3038 RMK A01 T10461080  RH  077%=      5-min Rain = 0
KES1 091355Z 27004KT M05/M08 A3038 RMK A01 T10461079  RH  078%=      5-min Rain = 0
KES1 091356Z 27004KT M05/M08 A3038 RMK A01 T10461079  RH  078%=      5-min Rain = 0
KES1 091357Z 27004KT M05/M08 A3038 RMK A01 T10451079  RH  078%=      5-min Rain = 0
KES1 091358Z 27004KT M05/M08 A3038 RMK A01 T10451078  RH  078%=      5-min Rain = 0
KES1 091359Z 26004KT M05/M08 A3038 RMK A01 T10451078  RH  078%=      5-min Rain = 0
KES1 091400Z 26004KT M05/M08 A3038 RMK A01 T10451078  RH  078%=      5-min Rain = 0
KES1 091401Z 26003KT M04/M08 A3038 RMK A01 T10441078  RH  077%=      5-min Rain = 0
KES1 091402Z 26004KT M04/M08 A3038 RMK A01 T10441077  RH  077%=      5-min Rain = 0
KES1 091403Z 26004KT M04/M08 A3038 RMK A01 T10431077  RH  077%=      5-min Rain = 0
KES1 091404Z 26005KT M04/M08 A3038 RMK A01 T10431076  RH  078%=      5-min Rain = 0
KES1 091405Z 25005KT M04/M08 A3038 RMK A01 T10421075  RH  078%=      5-min Rain = 0
KES1 091406Z 25004KT M04/M08 A3038 RMK A01 T10411075  RH  077%=      5-min Rain = 0
KES1 091407Z 25005KT M04/M07 A3038 RMK A01 T10401074  RH  077%=      5-min Rain = 0
KES1 091408Z 25004KT M04/M07 A3038 RMK A01 T10401074  RH  077%=      5-min Rain = 0
KES1 091409Z 25004KT M04/M07 A3038 RMK A01 T10391074  RH  077%=      5-min Rain = 0
KES1 091410Z 25004KT M04/M07 A3038 RMK A01 T10391073  RH  077%=      5-min Rain = 0
KES1 091411Z 25004KT M04/M07 A3038 RMK A01 T10381073  RH  077%=      5-min Rain = 0
KES1 091412Z 25004KT M04/M07 A3038 RMK A01 T10381072  RH  077%=      5-min Rain = 0
KES1 091413Z 25004KT M04/M07 A3038 RMK A01 T10371072  RH  077%=      5-min Rain = 0
KES1 091414Z 25004KT M04/M07 A3038 RMK A01 T10371072  RH  077%=      5-min Rain = 0
KES1 091415Z 25004KT M04/M07 A3038 RMK A01 T10371071  RH  077%=      5-min Rain = 0
KES1 091416Z 25004KT M04/M07 A3038 RMK A01 T10361071  RH  077%=      5-min Rain = 0
KES1 091417Z 26003KT M04/M07 A3038 RMK A01 T10351070  RH  077%=      5-min Rain = 0
KES1 091418Z 26003KT M03/M07 A3038 RMK A01 T10341068  RH  078%=      5-min Rain = 0
KES1 091419Z 26004KT M03/M07 A3039 RMK A01 T10341066  RH  078%=      5-min Rain = 0
KES1 091420Z 26004KT M03/M07 A3039 RMK A01 T10331066  RH  078%=      5-min Rain = 0
KES1 091421Z 27003KT M03/M06 A3039 RMK A01 T10311064  RH  078%=      5-min Rain = 0
KES1 091422Z 27003KT M03/M06 A3039 RMK A01 T10311064  RH  078%=      5-min Rain = 0
KES1 091423Z 27004KT M03/M06 A3039 RMK A01 T10301063  RH  078%=      5-min Rain = 0
KES1 091424Z 27006KT M03/M06 A3039 RMK A01 T10291064  RH  077%=      5-min Rain = 0
KES1 091425Z 27006KT M03/M06 A3039 RMK A01 T10281064  RH  076%=      5-min Rain = 0
KES1 091426Z 28005KT M03/M06 A3039 RMK A01 T10271064  RH  076%=      5-min Rain = 0
KES1 091427Z 28006KT M03/M06 A3039 RMK A01 T10261064  RH  075%=      5-min Rain = 0
KES1 091428Z 27005KT M03/M06 A3039 RMK A01 T10261064  RH  075%=      5-min Rain = 0
KES1 091429Z 27005KT M03/M06 A3039 RMK A01 T10251064  RH  075%=      5-min Rain = 0
KES1 091430Z 27005KT M03/M06 A3039 RMK A01 T10251063  RH  075%=      5-min Rain = 0
KES1 091431Z 27005KT M02/M06 A3039 RMK A01 T10241061  RH  076%=      5-min Rain = 0
KES1 091432Z 27005KT M02/M06 A3039 RMK A01 T10241061  RH  076%=      5-min Rain = 0
KES1 091433Z 27005KT M02/M06 A3039 RMK A01 T10231062  RH  075%=      5-min Rain = 0
KES1 091434Z 27005KT M02/M06 A3039 RMK A01 T10231062  RH  074%=      5-min Rain = 0
KES1 091435Z 27006KT M02/M06 A3039 RMK A01 T10221061  RH  075%=      5-min Rain = 0
KES1 091436Z 27006KT M02/M06 A3039 RMK A01 T10221061  RH  074%=      5-min Rain = 0
KES1 091437Z 27005KT M02/M06 A3039 RMK A01 T10221062  RH  074%=      5-min Rain = 0
KES1 091438Z 27005KT M02/M06 A3039 RMK A01 T10211061  RH  074%=      5-min Rain = 0
KES1 091439Z 27004KT M02/M06 A3039 RMK A01 T10211059  RH  075%=      5-min Rain = 0
KES1 091440Z 28005KT M02/M06 A3039 RMK A01 T10201059  RH  075%=      5-min Rain = 0
KES1 091441Z 27005KT M02/M06 A3039 RMK A01 T10201062  RH  073%=      5-min Rain = 0
KES1 091442Z 27005KT M02/M06 A3039 RMK A01 T10211062  RH  074%=      5-min Rain = 0
KES1 091443Z 27005KT M02/M06 A3039 RMK A01 T10221062  RH  074%=      5-min Rain = 0
KES1 091444Z 27006KT M02/M06 A3039 RMK A01 T10221061  RH  074%=      5-min Rain = 0
KES1 091445Z 27006KT M02/M06 A3039 RMK A01 T10221061  RH  074%=      5-min Rain = 0
KES1 091446Z 27005KT M02/M06 A3039 RMK A01 T10221062  RH  074%=      5-min Rain = 0
KES1 091447Z 27005KT M02/M06 A3039 RMK A01 T10221061  RH  074%=      5-min Rain = 0
KES1 091448Z 28005KT M02/M06 A3039 RMK A01 T10211060  RH  075%=      5-min Rain = 0
KES1 091449Z 27005KT M02/M06 A3039 RMK A01 T10201061  RH  074%=      5-min Rain = 0
KES1 091450Z 27004KT M02/M06 A3039 RMK A01 T10191059  RH  074%=      5-min Rain = 0
KES1 091451Z 27005KT M02/M06 A3039 RMK A01 T10191057  RH  075%=      5-min Rain = 0
KES1 091452Z 27004KT M02/M06 A304 RMK A01 T10181058  RH  074%=      5-min Rain = 0
KES1 091453Z 27005KT M02/M06 A304 RMK A01 T10181059  RH  073%=      5-min Rain = 0
KES1 091454Z 27004KT M02/M06 A3039 RMK A01 T10171059  RH  073%=      5-min Rain = 0
KES1 091455Z 27004KT M02/M06 A3039 RMK A01 T10161058  RH  073%=      5-min Rain = 0
KES1 091456Z 28003KT M02/M06 A304 RMK A01 T10161057  RH  073%=      5-min Rain = 0
KES1 091457Z 28002KT M02/M06 A304 RMK A01 T10151056  RH  074%=      5-min Rain = 0
KES1 091458Z 27002KT M01/M05 A304 RMK A01 T10131053  RH  074%=      5-min Rain = 0
KES1 091459Z 28002KT M01/M05 A304 RMK A01 T10121053  RH  074%=      5-min Rain = 0
KES1 091500Z 29005KT M01/M06 A304 RMK A01 T10111057  RH  071%=      5-min Rain = 0
KES1 091501Z 29005KT M01/M06 A304 RMK A01 T10101060  RH  068%=      5-min Rain = 0
KES1 091502Z 30005KT M01/M06 A304 RMK A01 T10091063  RH  067%=      5-min Rain = 0
KES1 091503Z 29004KT M01/M06 A304 RMK A01 T10091062  RH  067%=      5-min Rain = 0
KES1 091504Z 29004KT M01/M07 A304 RMK A01 T10081067  RH  065%=      5-min Rain = 0
KES1 091505Z 30004KT M01/M07 A304 RMK A01 T10081065  RH  065%=      5-min Rain = 0
KES1 091506Z 29005KT M01/M06 A304 RMK A01 T10071060  RH  067%=      5-min Rain = 0
KES1 091507Z 29006KT M01/M06 A304 RMK A01 T10061061  RH  067%=      5-min Rain = 0
KES1 091508Z 29006KT M01/M06 A304 RMK A01 T10061063  RH  066%=      5-min Rain = 0
KES1 091509Z 30007KT M01/M06 A304 RMK A01 T10061063  RH  065%=      5-min Rain = 0
KES1 091510Z 30006KT M01/M06 A3041 RMK A01 T10061064  RH  065%=      5-min Rain = 0
KES1 091511Z 29004KT M01/M06 A3041 RMK A01 T10051061  RH  066%=      5-min Rain = 0
KES1 091512Z 28004KT M00/M06 A3041 RMK A01 T10041060  RH  066%=      5-min Rain = 0
KES1 091513Z 28005KT M00/M06 A3041 RMK A01 T10031060  RH  066%=      5-min Rain = 0
KES1 091514Z 29005KT M00/M06 A3041 RMK A01 T10031064  RH  063%=      5-min Rain = 0
KES1 091515Z 28005KT M00/M06 A3041 RMK A01 T10031064  RH  064%=      5-min Rain = 0
KES1 091516Z 30006KT M00/M06 A3041 RMK A01 T10031063  RH  064%=      5-min Rain = 0
KES1 091517Z 30006KT M00/M06 A3041 RMK A01 T10031062  RH  064%=      5-min Rain = 0
KES1 091518Z 30006KT M00/M06 A3041 RMK A01 T10031062  RH  064%=      5-min Rain = 0
KES1 091519Z 30005KT M00/M06 A3041 RMK A01 T10021061  RH  065%=      5-min Rain = 0
KES1 091520Z 30005KT M00/M06 A3041 RMK A01 T10021060  RH  065%=      5-min Rain = 0
KES1 091521Z 29006KT M00/M06 A3041 RMK A01 T10021062  RH  064%=      5-min Rain = 0
KES1 091522Z 30006KT M00/M07 A3041 RMK A01 T10021065  RH  063%=      5-min Rain = 0
KES1 091523Z 30006KT M00/M07 A3041 RMK A01 T10031069  RH  061%=      5-min Rain = 0
KES1 091524Z 30005KT M00/M07 A3041 RMK A01 T10041065  RH  063%=      5-min Rain = 0
KES1 091525Z 30005KT M00/M06 A3041 RMK A01 T10031062  RH  065%=      5-min Rain = 0
KES1 091526Z 29006KT M00/M06 A3041 RMK A01 T10021059  RH  066%=      5-min Rain = 0
KES1 091527Z 30006KT M00/M06 A3041 RMK A01 T10011059  RH  065%=      5-min Rain = 0
KES1 091528Z 30005KT M00/M06 A3041 RMK A01 T10011061  RH  064%=      5-min Rain = 0
KES1 091529Z 30005KT 00/06 A3041 RMK A01 T00-00-59  RH  064%=      5-min Rain = 0
KES1 091530Z 30005KT 00/06 A3041 RMK A01 T00000-58  RH  065%=      5-min Rain = 0
KES1 091531Z 31004KT 00/M06 A3041 RMK A01 T00011059  RH  064%=      5-min Rain = 0
KES1 091532Z 30004KT 00/M06 A3041 RMK A01 T00011061  RH  063%=      5-min Rain = 0
KES1 091533Z 30004KT 00/M06 A3041 RMK A01 T00021061  RH  063%=      5-min Rain = 0
KES1 091534Z 31004KT 00/M06 A3042 RMK A01 T00021061  RH  063%=      5-min Rain = 0
KES1 091535Z 30004KT 00/M06 A3042 RMK A01 T00031058  RH  064%=      5-min Rain = 0
KES1 091536Z 31004KT 00/M06 A3042 RMK A01 T00031055  RH  065%=      5-min Rain = 0
KES1 091537Z 30003KT 00/M06 A3042 RMK A01 T00041057  RH  063%=      5-min Rain = 0
KES1 091538Z 30003KT 01/M05 A3042 RMK A01 T00051054  RH  065%=      5-min Rain = 0
KES1 091539Z 31004KT 01/M05 A3042 RMK A01 T00061051  RH  065%=      5-min Rain = 0
KES1 091540Z 31003KT 01/M05 A3042 RMK A01 T00071052  RH  065%=      5-min Rain = 0
KES1 091541Z 30004KT 01/M05 A3042 RMK A01 T00081052  RH  064%=      5-min Rain = 0
KES1 091542Z 30005KT 01/M06 A3042 RMK A01 T00081057  RH  062%=      5-min Rain = 0
KES1 091543Z 30005KT 01/M06 A3042 RMK A01 T00081063  RH  059%=      5-min Rain = 0
KES1 091544Z 31005KT 01/M06 A3042 RMK A01 T00081061  RH  060%=      5-min Rain = 0
KES1 091545Z 31005KT 01/M06 A3042 RMK A01 T00081060  RH  060%=      5-min Rain = 0
KES1 091546Z 31004KT 01/M06 A3042 RMK A01 T00091058  RH  061%=      5-min Rain = 0
KES1 091547Z 32005KT 01/M06 A3042 RMK A01 T00091059  RH  060%=      5-min Rain = 0
KES1 091548Z 32005KT 01/M06 A3042 RMK A01 T00091063  RH  058%=      5-min Rain = 0
KES1 091549Z 32004KT 01/M06 A3042 RMK A01 T00081064  RH  058%=      5-min Rain = 0
KES1 091550Z 32004KT 01/M07 A3042 RMK A01 T00071066  RH  058%=      5-min Rain = 0
KES1 091551Z 31004KT 01/M06 A3042 RMK A01 T00071064  RH  059%=      5-min Rain = 0
KES1 091552Z 31003KT 01/M06 A3042 RMK A01 T00081061  RH  060%=      5-min Rain = 0
KES1 091553Z 31004KT 01/M06 A3042 RMK A01 T00091057  RH  061%=      5-min Rain = 0
KES1 091554Z 30004KT 01/M06 A3042 RMK A01 T00111060  RH  059%=      5-min Rain = 0
KES1 091555Z 29004KT 01/M06 A3042 RMK A01 T00111062  RH  058%=      5-min Rain = 0
KES1 091556Z 29004KT 01/M06 A3042 RMK A01 T00111063  RH  058%=      5-min Rain = 0
KES1 091557Z 30004KT 01/M06 A3042 RMK A01 T00121064  RH  057%=      5-min Rain = 0
KES1 091558Z 30004KT 01/M06 A3042 RMK A01 T00121064  RH  057%=      5-min Rain = 0
KES1 091559Z 31004KT 01/M06 A3042 RMK A01 T00131060  RH  058%=      5-min Rain = 0
KES1 091600Z 31003KT 02/M06 A3042 RMK A01 T00151057  RH  059%=      5-min Rain = 0
KES1 091601Z 31004KT 02/M06 A3042 RMK A01 T00161059  RH  058%=      5-min Rain = 0
KES1 091602Z 31004KT 02/M06 A3042 RMK A01 T00161059  RH  057%=      5-min Rain = 0
KES1 091603Z 31003KT 02/M06 A3042 RMK A01 T00171060  RH  057%=      5-min Rain = 0
KES1 091604Z 29002KT 02/M06 A3042 RMK A01 T00171062  RH  056%=      5-min Rain = 0
KES1 091605Z 30003KT 02/M06 A3042 RMK A01 T00171058  RH  057%=      5-min Rain = 0
KES1 091606Z 31004KT 02/M06 A3042 RMK A01 T00181060  RH  056%=      5-min Rain = 0
KES1 091607Z 29004KT 02/M07 A3042 RMK A01 T00181065  RH  054%=      5-min Rain = 0
KES1 091608Z 32004KT 02/M07 A3042 RMK A01 T00191068  RH  053%=      5-min Rain = 0
KES1 091609Z 32003KT 02/M07 A3042 RMK A01 T00191066  RH  053%=      5-min Rain = 0
KES1 091610Z 32003KT 02/M06 A3042 RMK A01 T00191064  RH  054%=      5-min Rain = 0
KES1 091611Z 31004KT 02/M06 A3042 RMK A01 T00181059  RH  057%=      5-min Rain = 0
KES1 091612Z 31004KT 02/M05 A3042 RMK A01 T00201054  RH  058%=      5-min Rain = 0
KES1 091613Z 30004KT 02/M06 A3042 RMK A01 T00211061  RH  055%=      5-min Rain = 0
KES1 091614Z 31003KT 02/M06 A3042 RMK A01 T00221064  RH  053%=      5-min Rain = 0
KES1 091615Z 30003KT 02/M06 A3042 RMK A01 T00231059  RH  055%=      5-min Rain = 0
KES1 091616Z 29003KT 02/M06 A3042 RMK A01 T00241059  RH  054%=      5-min Rain = 0
KES1 091617Z 31004KT 02/M06 A3042 RMK A01 T00241059  RH  054%=      5-min Rain = 0
KES1 091618Z 32003KT 03/M05 A3042 RMK A01 T00251053  RH  056%=      5-min Rain = 0
KES1 091619Z 32003KT 03/M06 A3042 RMK A01 T00261059  RH  053%=      5-min Rain = 0
KES1 091620Z 32002KT 03/M06 A3042 RMK A01 T00251062  RH  053%=      5-min Rain = 0
KES1 091621Z 31003KT 03/M05 A3042 RMK A01 T00251054  RH  056%=      5-min Rain = 0
KES1 091622Z 30004KT 03/M05 A3042 RMK A01 T00261049  RH  058%=      5-min Rain = 0
KES1 091623Z 30003KT 03/M06 A3042 RMK A01 T00271056  RH  054%=      5-min Rain = 0
KES1 091624Z 32002KT 03/M06 A3042 RMK A01 T00271059  RH  053%=      5-min Rain = 0
KES1 091625Z 33003KT 03/M06 A3042 RMK A01 T00271059  RH  053%=      5-min Rain = 0
KES1 091626Z 31003KT 03/M06 A3042 RMK A01 T00271064  RH  051%=      5-min Rain = 0
KES1 091627Z 31003KT 03/M06 A3042 RMK A01 T00261060  RH  053%=      5-min Rain = 0
KES1 091628Z 31003KT 03/M06 A3042 RMK A01 T00271059  RH  053%=      5-min Rain = 0
KES1 091629Z 30003KT 03/M06 A3042 RMK A01 T00281062  RH  052%=      5-min Rain = 0
KES1 091630Z 31003KT 03/M06 A3042 RMK A01 T00281059  RH  052%=      5-min Rain = 0
KES1 091631Z 33003KT 03/M06 A3042 RMK A01 T00291063  RH  051%=      5-min Rain = 0
KES1 091632Z 32003KT 03/M06 A3042 RMK A01 T00291062  RH  051%=      5-min Rain = 0
KES1 091633Z 33003KT 03/M06 A3042 RMK A01 T00291061  RH  052%=      5-min Rain = 0
KES1 091634Z 32003KT 03/M06 A3042 RMK A01 T00281060  RH  052%=      5-min Rain = 0
KES1 091635Z 33004KT 03/M06 A3042 RMK A01 T00281061  RH  052%=      5-min Rain = 0
KES1 091636Z 32004KT 03/M07 A3042 RMK A01 T00291068  RH  049%=      5-min Rain = 0
KES1 091637Z 32004KT 03/M07 A3042 RMK A01 T00301067  RH  049%=      5-min Rain = 0
KES1 091638Z 33004KT 03/M07 A3042 RMK A01 T00311066  RH  049%=      5-min Rain = 0
KES1 091639Z 33004KT 03/M06 A3042 RMK A01 T00311063  RH  050%=      5-min Rain = 0
KES1 091640Z 33005KT 03/M06 A3042 RMK A01 T00311056  RH  053%=      5-min Rain = 0
KES1 091641Z 32006KT 03/M06 A3042 RMK A01 T00301064  RH  050%=      5-min Rain = 0
KES1 091642Z 32006KT 03/M06 A3042 RMK A01 T00301059  RH  052%=      5-min Rain = 0
KES1 091643Z 33005KT 03/M06 A3042 RMK A01 T00301064  RH  050%=      5-min Rain = 0
KES1 091644Z 32005KT 03/M07 A3042 RMK A01 T00301067  RH  049%=      5-min Rain = 0
KES1 091645Z 32005KT 03/M07 A3042 RMK A01 T00301066  RH  049%=      5-min Rain = 0
KES1 091646Z 32004KT 03/M06 A3042 RMK A01 T00301062  RH  051%=      5-min Rain = 0
KES1 091647Z 32004KT 03/M06 A3042 RMK A01 T00311057  RH  053%=      5-min Rain = 0
KES1 091648Z 32004KT 03/M06 A3042 RMK A01 T00321059  RH  051%=      5-min Rain = 0
KES1 091649Z 31006KT 03/M06 A3042 RMK A01 T00341055  RH  052%=      5-min Rain = 0
KES1 091650Z 31005KT 04/M06 A3042 RMK A01 T00351055  RH  052%=      5-min Rain = 0
KES1 091651Z 31005KT 04/M05 A3042 RMK A01 T00371054  RH  051%=      5-min Rain = 0
KES1 091652Z 30003KT 04/M06 A3042 RMK A01 T00371063  RH  048%=      5-min Rain = 0
KES1 091653Z 32004KT 04/M06 A3042 RMK A01 T00381062  RH  048%=      5-min Rain = 0
KES1 091654Z 32003KT 04/M07 A3042 RMK A01 T00381065  RH  047%=      5-min Rain = 0
KES1 091655Z 33003KT 04/M07 A3042 RMK A01 T00371067  RH  046%=      5-min Rain = 0
KES1 091656Z 30003KT 04/M07 A3042 RMK A01 T00371067  RH  047%=      5-min Rain = 0
KES1 091657Z 30002KT 04/M06 A3042 RMK A01 T00371061  RH  049%=      5-min Rain = 0
KES1 091658Z 31003KT 04/M06 A3042 RMK A01 T00381060  RH  049%=      5-min Rain = 0
KES1 091659Z 31006KT 04/M05 A3042 RMK A01 T00401054  RH  050%=      5-min Rain = 0
KES1 091700Z 32004KT 04/M06 A3042 RMK A01 T00421060  RH  047%=      5-min Rain = 0
KES1 091701Z 32003KT 04/M06 A3042 RMK A01 T00431064  RH  046%=      5-min Rain = 0
KES1 091702Z 33003KT 04/M07 A3042 RMK A01 T00421065  RH  046%=      5-min Rain = 0
KES1 091703Z 33004KT 04/M06 A3041 RMK A01 T00421060  RH  047%=      5-min Rain = 0
KES1 091704Z 33005KT 04/M06 A3041 RMK A01 T00411060  RH  048%=      5-min Rain = 0
KES1 091705Z 32005KT 04/M06 A3041 RMK A01 T00401059  RH  048%=      5-min Rain = 0
KES1 091706Z 32005KT 04/M06 A3041 RMK A01 T00401055  RH  050%=      5-min Rain = 0
KES1 091707Z 32004KT 04/M06 A3041 RMK A01 T00411057  RH  049%=      5-min Rain = 0
KES1 091708Z 33003KT 04/M06 A3041 RMK A01 T00411063  RH  047%=      5-min Rain = 0
KES1 091709Z 32004KT 04/M06 A3041 RMK A01 T00411058  RH  048%=      5-min Rain = 0
KES1 091710Z 31005KT 04/M05 A3041 RMK A01 T00421050  RH  051%=      5-min Rain = 0
KES1 091711Z 31004KT 04/M06 A3041 RMK A01 T00431057  RH  048%=      5-min Rain = 0
KES1 091712Z 31003KT 04/M06 A3041 RMK A01 T00441058  RH  048%=      5-min Rain = 0
KES1 091713Z 31004KT 05/M06 A3041 RMK A01 T00451061  RH  046%=      5-min Rain = 0
KES1 091714Z 30002KT 05/M06 A3041 RMK A01 T00451064  RH  045%=      5-min Rain = 0
KES1 091715Z 33002KT 04/M07 A3041 RMK A01 T00441066  RH  045%=      5-min Rain = 0
KES1 091716Z 34003KT 04/M06 A3041 RMK A01 T00441060  RH  047%=      5-min Rain = 0
KES1 091717Z 29004KT 04/M05 A3041 RMK A01 T00441051  RH  050%=      5-min Rain = 0
KES1 091718Z 30005KT 05/M05 A3041 RMK A01 T00471050  RH  050%=      5-min Rain = 0
KES1 091719Z 29003KT 05/M05 A3041 RMK A01 T00491051  RH  049%=      5-min Rain = 0
KES1 091720Z 27002KT 05/M06 A3041 RMK A01 T00491058  RH  046%=      5-min Rain = 0
KES1 091721Z 28003KT 05/M06 A3041 RMK A01 T00491059  RH  046%=      5-min Rain = 0
KES1 091722Z 28004KT 05/M06 A3041 RMK A01 T00491059  RH  046%=      5-min Rain = 0
KES1 091723Z 28004KT 05/M06 A3041 RMK A01 T00491056  RH  047%=      5-min Rain = 0
KES1 091724Z 30003KT 05/M06 A304 RMK A01 T00501059  RH  045%=      5-min Rain = 0
KES1 091725Z 28004KT 05/M06 A304 RMK A01 T00501057  RH  046%=      5-min Rain = 0
KES1 091726Z 28002KT 05/M06 A304 RMK A01 T00511058  RH  045%=      5-min Rain = 0
KES1 091727Z 32003KT 05/M06 A304 RMK A01 T00521057  RH  045%=      5-min Rain = 0
KES1 091728Z 32003KT 05/M06 A304 RMK A01 T00521060  RH  044%=      5-min Rain = 0
KES1 091729Z 00004KT 05/M08 A304 RMK A01 T00521076  RH  039%=      5-min Rain = 0
KES1 091730Z 36004KT 05/M08 A304 RMK A01 T00511080  RH  038%=      5-min Rain = 0
KES1 091731Z 35003KT 05/M07 A304 RMK A01 T00501070  RH  042%=      5-min Rain = 0
KES1 091732Z 30003KT 05/M06 A304 RMK A01 T00511061  RH  044%=      5-min Rain = 0
KES1 091733Z 32004KT 05/M06 A304 RMK A01 T00531059  RH  044%=      5-min Rain = 0
KES1 091734Z 34005KT 05/M07 A304 RMK A01 T00541066  RH  042%=      5-min Rain = 0
KES1 091735Z 32003KT 05/M08 A304 RMK A01 T00531080  RH  038%=      5-min Rain = 0
KES1 091736Z 31003KT 05/M07 A304 RMK A01 T00521073  RH  040%=      5-min Rain = 0
KES1 091737Z 32005KT 05/M07 A304 RMK A01 T00541065  RH  042%=      5-min Rain = 0
KES1 091738Z 32004KT 05/M07 A304 RMK A01 T00541073  RH  039%=      5-min Rain = 0
KES1 091739Z 33002KT 05/M07 A304 RMK A01 T00541074  RH  039%=      5-min Rain = 0
KES1 091740Z 31003KT 05/M08 A304 RMK A01 T00541077  RH  038%=      5-min Rain = 0
KES1 091741Z 32005KT 05/M07 A304 RMK A01 T00541070  RH  040%=      5-min Rain = 0
KES1 091742Z 33007KT 06/M06 A304 RMK A01 T00571058  RH  043%=      5-min Rain = 0
KES1 091743Z 34007KT 06/M07 A304 RMK A01 T00561072  RH  039%=      5-min Rain = 0
KES1 091744Z 35007KT 06/M07 A304 RMK A01 T00551071  RH  040%=      5-min Rain = 0
KES1 091745Z 35004KT 05/M07 A304 RMK A01 T00541073  RH  039%=      5-min Rain = 0
KES1 091746Z 01003KT 05/M08 A304 RMK A01 T00541081  RH  037%=      5-min Rain = 0
KES1 091747Z 00002KT 05/M09 A304 RMK A01 T00541085  RH  036%=      5-min Rain = 0
KES1 091748Z 36002KT 05/M08 A304 RMK A01 T00541083  RH  036%=      5-min Rain = 0
KES1 091749Z 00005KT 06/M08 A304 RMK A01 T00551079  RH  038%=      5-min Rain = 0
KES1 091750Z 35002KT 06/M08 A304 RMK A01 T00551083  RH  036%=      5-min Rain = 0
KES1 091751Z 03004KT 06/M08 A304 RMK A01 T00561078  RH  037%=      5-min Rain = 0
KES1 091752Z 03005KT 06/M08 A304 RMK A01 T00571081  RH  036%=      5-min Rain = 0
KES1 091753Z 04003KT 06/M08 A304 RMK A01 T00581084  RH  035%=      5-min Rain = 0
KES1 091754Z 35003KT 06/M09 A304 RMK A01 T00581086  RH  035%=      5-min Rain = 0
KES1 091755Z 31005KT 06/M07 A304 RMK A01 T00591070  RH  039%=      5-min Rain = 0
KES1 091756Z 31007KT 06/M06 A304 RMK A01 T00601059  RH  042%=      5-min Rain = 0
KES1 091757Z 30006KT 06/M06 A304 RMK A01 T00621061  RH  041%=      5-min Rain = 0
KES1 091758Z 31006KT 06/M07 A304 RMK A01 T00621069  RH  038%=      5-min Rain = 0
KES1 091759Z 32005KT 06/M07 A304 RMK A01 T00621066  RH  039%=      5-min Rain = 0
KES1 091800Z 32003KT 06/M08 A304 RMK A01 T00611075  RH  037%=      5-min Rain = 0
KES1 091801Z 31004KT 06/M08 A304 RMK A01 T00601075  RH  037%=      5-min Rain = 0
KES1 091802Z 31005KT 06/M06 A304 RMK A01 T00611063  RH  041%=      5-min Rain = 0
KES1 091803Z 31004KT 06/M07 A304 RMK A01 T00621066  RH  039%=      5-min Rain = 0
KES1 091804Z 33005KT 06/M06 A304 RMK A01 T00621063  RH  040%=      5-min Rain = 0
KES1 091805Z 33005KT 06/M06 A304 RMK A01 T00621062  RH  041%=      5-min Rain = 0
KES1 091806Z 32005KT 06/M06 A3039 RMK A01 T00621061  RH  041%=      5-min Rain = 0
KES1 091807Z 35006KT 06/M07 A3039 RMK A01 T00621067  RH  039%=      5-min Rain = 0
KES1 091808Z 00004KT 06/M08 A3039 RMK A01 T00621075  RH  037%=      5-min Rain = 0
KES1 091809Z 04004KT 06/M08 A3039 RMK A01 T00621076  RH  036%=      5-min Rain = 0
KES1 091810Z 03002KT 06/M08 A3039 RMK A01 T00631079  RH  035%=      5-min Rain = 0
KES1 091811Z 04003KT 07/M09 A3039 RMK A01 T00651085  RH  033%=      5-min Rain = 0
KES1 091812Z 03003KT 06/M08 A3039 RMK A01 T00641082  RH  034%=      5-min Rain = 0
KES1 091813Z 04004KT 07/M08 A3039 RMK A01 T00671076  RH  035%=      5-min Rain = 0
KES1 091814Z 08004KT 07/M08 A3039 RMK A01 T00691081  RH  033%=      5-min Rain = 0
KES1 091815Z 07004KT 07/M08 A3039 RMK A01 T00701083  RH  033%=      5-min Rain = 0
KES1 091816Z 05006KT 07/M08 A3038 RMK A01 T00721079  RH  033%=      5-min Rain = 0
KES1 091817Z 02008KT 07/M08 A3038 RMK A01 T00731083  RH  032%=      5-min Rain = 0
KES1 091818Z 36007KT 07/M09 A3038 RMK A01 T00721089  RH  031%=      5-min Rain = 0
KES1 091819Z 35006KT 07/M09 A3038 RMK A01 T00681094  RH  030%=      5-min Rain = 0
KES1 091820Z 35005KT 07/M09 A3038 RMK A01 T00651094  RH  031%=      5-min Rain = 0
KES1 091821Z 34005KT 06/M10 A3038 RMK A01 T00641097  RH  031%=      5-min Rain = 0
KES1 091822Z 34006KT 06/M09 A3038 RMK A01 T00631091  RH  032%=      5-min Rain = 0
KES1 091823Z 35007KT 07/M07 A3038 RMK A01 T00651074  RH  036%=      5-min Rain = 0
KES1 091824Z 35007KT 07/M08 A3039 RMK A01 T00671075  RH  036%=      5-min Rain = 0
KES1 091825Z 35005KT 07/M08 A3039 RMK A01 T00661081  RH  034%=      5-min Rain = 0
KES1 091826Z 34007KT 07/M08 A3039 RMK A01 T00661079  RH  035%=      5-min Rain = 0
KES1 091827Z 34007KT 07/M08 A3039 RMK A01 T00661082  RH  034%=      5-min Rain = 0
KES1 091828Z 36006KT 07/M08 A3038 RMK A01 T00651084  RH  034%=      5-min Rain = 0
KES1 091829Z 00005KT 07/M08 A3038 RMK A01 T00651082  RH  034%=      5-min Rain = 0
KES1 091830Z 03003KT 07/M09 A3038 RMK A01 T00651085  RH  033%=      5-min Rain = 0
KES1 091831Z 03004KT 07/M09 A3038 RMK A01 T00671088  RH  032%=      5-min Rain = 0
KES1 091832Z 01003KT 07/M09 A3038 RMK A01 T00681092  RH  031%=      5-min Rain = 0
KES1 091833Z 03002KT 07/M09 A3038 RMK A01 T00681090  RH  031%=      5-min Rain = 0
KES1 091834Z 06003KT 07/M09 A3038 RMK A01 T00681089  RH  032%=      5-min Rain = 0
KES1 091835Z 05002KT 07/M09 A3038 RMK A01 T00701093  RH  030%=      5-min Rain = 0
KES1 091836Z 05003KT 07/M09 A3038 RMK A01 T00721085  RH  032%=      5-min Rain = 0
KES1 091837Z 00004KT 07/M08 A3038 RMK A01 T00741083  RH  032%=      5-min Rain = 0
KES1 091838Z 35005KT 07/M09 A3038 RMK A01 T00731089  RH  031%=      5-min Rain = 0
KES1 091839Z 36005KT 07/M08 A3038 RMK A01 T00701082  RH  033%=      5-min Rain = 0
KES1 091840Z 36004KT 07/M07 A3038 RMK A01 T00711068  RH  036%=      5-min Rain = 0
KES1 091841Z 04005KT 07/M07 A3038 RMK A01 T00731072  RH  035%=      5-min Rain = 0
KES1 091842Z 04005KT 08/M08 A3038 RMK A01 T00751082  RH  032%=      5-min Rain = 0
KES1 091843Z 00003KT 08/M08 A3038 RMK A01 T00761080  RH  032%=      5-min Rain = 0
KES1 091844Z 01004KT 08/M08 A3038 RMK A01 T00761076  RH  033%=      5-min Rain = 0
KES1 091845Z 35005KT 07/M08 A3037 RMK A01 T00741081  RH  032%=      5-min Rain = 0
KES1 091846Z 34004KT 07/M09 A3037 RMK A01 T00721086  RH  032%=      5-min Rain = 0
KES1 091847Z 36003KT 07/M09 A3037 RMK A01 T00691088  RH  032%=      5-min Rain = 0
KES1 091848Z 34001KT 07/M09 A3037 RMK A01 T00681093  RH  031%=      5-min Rain = 0
KES1 091849Z 00003KT 07/M09 A3037 RMK A01 T00681086  RH  032%=      5-min Rain = 0
KES1 091850Z 35006KT 07/M08 A3037 RMK A01 T00701077  RH  034%=      5-min Rain = 0
KES1 091851Z 34003KT 07/M08 A3037 RMK A01 T00701079  RH  034%=      5-min Rain = 0
KES1 091852Z 33005KT 07/M08 A3037 RMK A01 T00711077  RH  034%=      5-min Rain = 0
KES1 091853Z 32003KT 07/M09 A3037 RMK A01 T00721086  RH  032%=      5-min Rain = 0
KES1 091854Z 01002KT 07/M08 A3036 RMK A01 T00721083  RH  032%=      5-min Rain = 0
KES1 091855Z 35002KT 07/M08 A3036 RMK A01 T00731084  RH  032%=      5-min Rain = 0
KES1 091856Z 01002KT 07/M09 A3036 RMK A01 T00741086  RH  031%=      5-min Rain = 0
KES1 091857Z 35002KT 08/M08 A3036 RMK A01 T00751083  RH  032%=      5-min Rain = 0
KES1 091858Z 03004KT 08/M09 A3036 RMK A01 T00751085  RH  031%=      5-min Rain = 0
KES1 091859Z 03004KT 08/M09 A3036 RMK A01 T00751088  RH  030%=      5-min Rain = 0
KES1 091900Z 01004KT 08/M09 A3036 RMK A01 T00761086  RH  031%=      5-min Rain = 0
KES1 091901Z 02005KT 08/M09 A3036 RMK A01 T00771085  RH  031%=      5-min Rain = 0
KES1 091902Z 03004KT 08/M09 A3036 RMK A01 T00761085  RH  031%=      5-min Rain = 0
KES1 091903Z 04004KT 08/M09 A3036 RMK A01 T00771086  RH  030%=      5-min Rain = 0
KES1 091904Z 02002KT 08/M09 A3036 RMK A01 T00771090  RH  030%=      5-min Rain = 0
KES1 091905Z 36006KT 08/M08 A3036 RMK A01 T00761078  RH  033%=      5-min Rain = 0
KES1 091906Z 36006KT 08/M07 A3036 RMK A01 T00771074  RH  033%=      5-min Rain = 0
KES1 091907Z 35005KT 08/M08 A3036 RMK A01 T00771080  RH  032%=      5-min Rain = 0
KES1 091908Z 34005KT 08/M09 A3036 RMK A01 T00751086  RH  031%=      5-min Rain = 0
KES1 091909Z 34002KT 07/M09 A3036 RMK A01 T00741093  RH  029%=      5-min Rain = 0
KES1 091910Z 32003KT 07/M09 A3036 RMK A01 T00731085  RH  032%=      5-min Rain = 0
KES1 091911Z 31006KT 08/M07 A3036 RMK A01 T00761069  RH  035%=      5-min Rain = 0
KES1 091912Z 31006KT 08/M07 A3036 RMK A01 T00791069  RH  034%=      5-min Rain = 0
KES1 091913Z 32005KT 08/M07 A3036 RMK A01 T00801074  RH  033%=      5-min Rain = 0
KES1 091914Z 31005KT 08/M07 A3036 RMK A01 T00801074  RH  033%=      5-min Rain = 0
KES1 091915Z 31007KT 08/M06 A3036 RMK A01 T00811061  RH  036%=      5-min Rain = 0
KES1 091916Z 32006KT 08/M08 A3036 RMK A01 T00821075  RH  032%=      5-min Rain = 0
KES1 091917Z 32005KT 08/M08 A3036 RMK A01 T00821081  RH  031%=      5-min Rain = 0
KES1 091918Z 33004KT 08/M09 A3036 RMK A01 T00801087  RH  030%=      5-min Rain = 0
KES1 091919Z 33003KT 08/M09 A3036 RMK A01 T00781087  RH  030%=      5-min Rain = 0
KES1 091920Z 33003KT 08/M09 A3036 RMK A01 T00771088  RH  030%=      5-min Rain = 0
KES1 091921Z 33004KT 08/M08 A3036 RMK A01 T00771081  RH  032%=      5-min Rain = 0
KES1 091922Z 34003KT 08/M08 A3036 RMK A01 T00771084  RH  031%=      5-min Rain = 0
KES1 091923Z 32003KT 08/M08 A3036 RMK A01 T00761081  RH  032%=      5-min Rain = 0
KES1 091924Z 31002KT 08/M08 A3035 RMK A01 T00771079  RH  032%=      5-min Rain = 0
KES1 091925Z 31002KT 08/M09 A3035 RMK A01 T00771085  RH  031%=      5-min Rain = 0
KES1 091926Z 28003KT 08/M08 A3035 RMK A01 T00781078  RH  032%=      5-min Rain = 0
KES1 091927Z 33002KT 08/M08 A3035 RMK A01 T00791083  RH  031%=      5-min Rain = 0
KES1 091928Z 01001KT 08/M08 A3035 RMK A01 T00811082  RH  031%=      5-min Rain = 0
KES1 091929Z 03002KT 08/M09 A3035 RMK A01 T00811089  RH  029%=      5-min Rain = 0
KES1 091930Z 05004KT 08/M09 A3035 RMK A01 T00821091  RH  028%=      5-min Rain = 0
KES1 091931Z 03002KT 08/M09 A3035 RMK A01 T00811091  RH  029%=      5-min Rain = 0
KES1 091932Z 06003KT 08/M09 A3035 RMK A01 T00821087  RH  029%=      5-min Rain = 0
KES1 091933Z 07003KT 08/M09 A3035 RMK A01 T00831089  RH  029%=      5-min Rain = 0
KES1 091934Z 09002KT 08/M09 A3035 RMK A01 T00821093  RH  028%=      5-min Rain = 0
KES1 091935Z 35002KT 08/M09 A3035 RMK A01 T00811090  RH  029%=      5-min Rain = 0
KES1 091936Z 32004KT 08/M09 A3035 RMK A01 T00811089  RH  029%=      5-min Rain = 0
KES1 091937Z 32002KT 08/M08 A3035 RMK A01 T00811082  RH  031%=      5-min Rain = 0
KES1 091938Z 35001KT 08/M09 A3035 RMK A01 T00811089  RH  029%=      5-min Rain = 0
KES1 091939Z 31005KT 08/M08 A3035 RMK A01 T00811084  RH  030%=      5-min Rain = 0
KES1 091940Z 33005KT 08/M08 A3035 RMK A01 T00841075  RH  032%=      5-min Rain = 0
KES1 091941Z 35004KT 08/M09 A3035 RMK A01 T00831091  RH  028%=      5-min Rain = 0
KES1 091942Z 36002KT 08/M10 A3035 RMK A01 T00821097  RH  027%=      5-min Rain = 0
KES1 091943Z 00001KT 08/M10 A3035 RMK A01 T00821095  RH  027%=      5-min Rain = 0
KES1 091944Z 36001KT 08/M10 A3035 RMK A01 T00821096  RH  027%=      5-min Rain = 0
KES1 091945Z 00002KT 08/M10 A3035 RMK A01 T00821096  RH  027%=      5-min Rain = 0
KES1 091946Z 33003KT 08/M09 A3035 RMK A01 T00821090  RH  029%=      5-min Rain = 0
KES1 091947Z 33003KT 08/M07 A3035 RMK A01 T00831074  RH  032%=      5-min Rain = 0
KES1 091948Z 31005KT 09/M07 A3035 RMK A01 T00851069  RH  033%=      5-min Rain = 0
KES1 091949Z 30006KT 09/M08 A3035 RMK A01 T00861078  RH  031%=      5-min Rain = 0
KES1 091950Z 29004KT 09/M08 A3035 RMK A01 T00871084  RH  029%=      5-min Rain = 0
KES1 091951Z 27002KT 09/M09 A3035 RMK A01 T00881086  RH  028%=      5-min Rain = 0
KES1 091952Z 31004KT 09/M08 A3035 RMK A01 T00901075  RH  030%=      5-min Rain = 0
KES1 091953Z 31005KT 09/M08 A3035 RMK A01 T00901084  RH  028%=      5-min Rain = 0
KES1 091954Z 34003KT 09/M09 A3035 RMK A01 T00881090  RH  027%=      5-min Rain = 0
KES1 091955Z 00001KT 09/M10 A3035 RMK A01 T00861095  RH  027%=      5-min Rain = 0
KES1 091956Z 02001KT 09/M09 A3035 RMK A01 T00851093  RH  027%=      5-min Rain = 0
KES1 091957Z 36001KT 09/M10 A3035 RMK A01 T00851095  RH  027%=      5-min Rain = 0
KES1 091958Z 33000KT 09/M09 A3035 RMK A01 T00851093  RH  027%=      5-min Rain = 0
KES1 091959Z 32001KT 09/M10 A3034 RMK A01 T00851097  RH  027%=      5-min Rain = 0
KES1 092000Z 32001KT 08/M10 A3034 RMK A01 T00841101  RH  026%=      5-min Rain = 0
KES1 092001Z 31000KT 08/M10 A3034 RMK A01 T00831099  RH  026%=      5-min Rain = 0
KES1 092002Z 33000KT 08/M10 A3034 RMK A01 T00841098  RH  026%=      5-min Rain = 0
KES1 092003Z 26002KT 09/M09 A3034 RMK A01 T00861091  RH  028%=      5-min Rain = 0
KES1 092004Z 30003KT 09/M09 A3034 RMK A01 T00881086  RH  028%=      5-min Rain = 0
KES1 092005Z 30005KT 09/M09 A3034 RMK A01 T00891089  RH  027%=      5-min Rain = 0
KES1 092006Z 29006KT 09/M09 A3034 RMK A01 T00901086  RH  028%=      5-min Rain = 0
KES1 092007Z 30004KT 09/M08 A3034 RMK A01 T00901081  RH  029%=      5-min Rain = 0
KES1 092008Z 28004KT 09/M08 A3034 RMK A01 T00911080  RH  029%=      5-min Rain = 0
KES1 092009Z 28004KT 09/M10 A3034 RMK A01 T00911099  RH  025%=      5-min Rain = 0
KES1 092010Z 28003KT 09/M10 A3034 RMK A01 T00891103  RH  025%=      5-min Rain = 0
KES1 092011Z 28004KT 09/M10 A3034 RMK A01 T00881098  RH  026%=      5-min Rain = 0
KES1 092012Z 26004KT 09/M09 A3034 RMK A01 T00891092  RH  027%=      5-min Rain = 0
KES1 092013Z 27003KT 09/M09 A3034 RMK A01 T00891093  RH  027%=      5-min Rain = 0
KES1 092014Z 28005KT 09/M09 A3034 RMK A01 T00901092  RH  027%=      5-min Rain = 0
KES1 092015Z 26005KT 09/M09 A3034 RMK A01 T00891094  RH  026%=      5-min Rain = 0
KES1 092016Z 28004KT 09/M09 A3034 RMK A01 T00891090  RH  027%=      5-min Rain = 0
KES1 092017Z 30006KT 09/M08 A3034 RMK A01 T00901082  RH  029%=      5-min Rain = 0
KES1 092018Z 29005KT 09/M09 A3034 RMK A01 T00911088  RH  027%=      5-min Rain = 0
KES1 092019Z 25004KT 09/M09 A3034 RMK A01 T00911091  RH  027%=      5-min Rain = 0
KES1 092020Z 24005KT 09/M09 A3034 RMK A01 T00911092  RH  026%=      5-min Rain = 0
KES1 092021Z 21005KT 09/M10 A3034 RMK A01 T00921095  RH  026%=      5-min Rain = 0
KES1 092022Z 19003KT 09/M10 A3034 RMK A01 T00911096  RH  026%=      5-min Rain = 0
KES1 092023Z 19002KT 09/M08 A3034 RMK A01 T00921083  RH  028%=      5-min Rain = 0
KES1 092024Z 32001KT 10/M09 A3034 RMK A01 T00951085  RH  027%=      5-min Rain = 0
KES1 092025Z 35003KT 10/M08 A3034 RMK A01 T00961084  RH  027%=      5-min Rain = 0
KES1 092026Z 03002KT 09/M09 A3034 RMK A01 T00931089  RH  027%=      5-min Rain = 0
KES1 092027Z 07002KT 09/M10 A3034 RMK A01 T00921095  RH  026%=      5-min Rain = 0
KES1 092028Z 03003KT 09/M09 A3034 RMK A01 T00911093  RH  026%=      5-min Rain = 0
KES1 092029Z 03003KT 09/M09 A3034 RMK A01 T00911091  RH  027%=      5-min Rain = 0
KES1 092030Z 03003KT 09/M09 A3034 RMK A01 T00911091  RH  027%=      5-min Rain = 0
KES1 092031Z 05002KT 09/M10 A3034 RMK A01 T00901095  RH  026%=      5-min Rain = 0
KES1 092032Z 06001KT 09/M10 A3034 RMK A01 T00901096  RH  026%=      5-min Rain = 0
KES1 092033Z 31002KT 09/M09 A3034 RMK A01 T00901091  RH  027%=      5-min Rain = 0
KES1 092034Z 31003KT 09/M08 A3034 RMK A01 T00911078  RH  029%=      5-min Rain = 0
KES1 092035Z 30001KT 09/M09 A3034 RMK A01 T00921085  RH  028%=      5-min Rain = 0
KES1 092036Z 02001KT 09/M09 A3034 RMK A01 T00941087  RH  027%=      5-min Rain = 0
KES1 092037Z 03002KT 09/M09 A3034 RMK A01 T00941089  RH  027%=      5-min Rain = 0
KES1 092038Z 04001KT 09/M09 A3034 RMK A01 T00931091  RH  026%=      5-min Rain = 0
KES1 092039Z 07001KT 09/M09 A3034 RMK A01 T00921091  RH  026%=      5-min Rain = 0
KES1 092040Z 02002KT 09/M09 A3034 RMK A01 T00931090  RH  026%=      5-min Rain = 0
KES1 092041Z 35003KT 09/M09 A3034 RMK A01 T00931092  RH  026%=      5-min Rain = 0
KES1 092042Z 35003KT 09/M09 A3034 RMK A01 T00921090  RH  027%=      5-min Rain = 0
KES1 092043Z 01002KT 09/M09 A3034 RMK A01 T00911089  RH  027%=      5-min Rain = 0
KES1 092044Z 35002KT 09/M09 A3034 RMK A01 T00921085  RH  028%=      5-min Rain = 0
KES1 092045Z 33005KT 09/M09 A3034 RMK A01 T00931088  RH  027%=      5-min Rain = 0
KES1 092046Z 32005KT 09/M09 A3034 RMK A01 T00921090  RH  027%=      5-min Rain = 0
KES1 092047Z 31004KT 09/M09 A3034 RMK A01 T00911090  RH  027%=      5-min Rain = 0
KES1 092048Z 32003KT 09/M09 A3034 RMK A01 T00911093  RH  026%=      5-min Rain = 0
KES1 092049Z 33004KT 09/M09 A3034 RMK A01 T00911094  RH  026%=      5-min Rain = 0
KES1 092050Z 34003KT 09/M09 A3034 RMK A01 T00911088  RH  027%=      5-min Rain = 0
KES1 092051Z 35003KT 09/M09 A3033 RMK A01 T00911092  RH  026%=      5-min Rain = 0
KES1 092052Z 34004KT 09/M08 A3033 RMK A01 T00921078  RH  029%=      5-min Rain = 0
KES1 092053Z 33003KT 09/M08 A3033 RMK A01 T00921083  RH  028%=      5-min Rain = 0
KES1 092054Z 35003KT 09/M09 A3033 RMK A01 T00921086  RH  027%=      5-min Rain = 0
KES1 092055Z 34002KT 09/M09 A3033 RMK A01 T00921088  RH  027%=      5-min Rain = 0
KES1 092056Z 34000KT 09/M09 A3033 RMK A01 T00921091  RH  026%=      5-min Rain = 0
KES1 092057Z 02001KT 09/M09 A3033 RMK A01 T00921093  RH  026%=      5-min Rain = 0
KES1 092058Z 02003KT 09/M10 A3033 RMK A01 T00931095  RH  026%=      5-min Rain = 0
KES1 092059Z 02001KT 09/M10 A3033 RMK A01 T00931098  RH  025%=      5-min Rain = 0
KES1 092100Z 36001KT 09/M10 A3033 RMK A01 T00941099  RH  024%=      5-min Rain = 0
KES1 092101Z 06001KT 09/M09 A3033 RMK A01 T00941093  RH  026%=      5-min Rain = 0
KES1 092102Z 05002KT 10/M09 A3033 RMK A01 T00951093  RH  025%=      5-min Rain = 0
KES1 092103Z 06002KT 10/M10 A3033 RMK A01 T00961095  RH  025%=      5-min Rain = 0
KES1 092104Z 07000KT 10/M09 A3033 RMK A01 T00961094  RH  025%=      5-min Rain = 0
KES1 092105Z 00001KT 10/M09 A3033 RMK A01 T00961092  RH  025%=      5-min Rain = 0
KES1 092106Z 33003KT 10/M09 A3033 RMK A01 T00961092  RH  026%=      5-min Rain = 0
KES1 092107Z 32004KT 10/M09 A3033 RMK A01 T00971087  RH  027%=      5-min Rain = 0
KES1 092108Z 31006KT 10/M09 A3033 RMK A01 T00961085  RH  027%=      5-min Rain = 0
KES1 092109Z 26005KT 10/M08 A3033 RMK A01 T00971082  RH  028%=      5-min Rain = 0
KES1 092110Z 25003KT 10/M09 A3033 RMK A01 T00981092  RH  025%=      5-min Rain = 0
KES1 092111Z 28003KT 10/M09 A3033 RMK A01 T00991090  RH  025%=      5-min Rain = 0
KES1 092112Z 27003KT 10/M08 A3033 RMK A01 T01001082  RH  027%=      5-min Rain = 0
KES1 092113Z 26004KT 10/M09 A3033 RMK A01 T01011090  RH  025%=      5-min Rain = 0
KES1 092114Z 24003KT 10/M09 A3033 RMK A01 T01011090  RH  025%=      5-min Rain = 0
KES1 092115Z 22003KT 10/M09 A3033 RMK A01 T01031088  RH  025%=      5-min Rain = 0
KES1 092116Z 23004KT 10/M09 A3033 RMK A01 T01041094  RH  024%=      5-min Rain = 0
KES1 092117Z 25004KT 10/M10 A3033 RMK A01 T01041095  RH  024%=      5-min Rain = 0
KES1 092118Z 25002KT 10/M10 A3033 RMK A01 T01031101  RH  023%=      5-min Rain = 0
KES1 092119Z 28001KT 10/M10 A3033 RMK A01 T01031096  RH  024%=      5-min Rain = 0
KES1 092120Z 26001KT 10/M10 A3033 RMK A01 T01031097  RH  023%=      5-min Rain = 0
KES1 092121Z 22001KT 10/M10 A3033 RMK A01 T01031103  RH  022%=      5-min Rain = 0
KES1 092122Z 20001KT 10/M10 A3033 RMK A01 T01031100  RH  023%=      5-min Rain = 0
KES1 092123Z 18002KT 10/M10 A3033 RMK A01 T01041099  RH  023%=      5-min Rain = 0
KES1 092124Z 20001KT 10/M11 A3033 RMK A01 T01041105  RH  022%=      5-min Rain = 0
KES1 092125Z 24001KT 10/M11 A3033 RMK A01 T01041105  RH  022%=      5-min Rain = 0
KES1 092126Z 23002KT 10/M10 A3033 RMK A01 T01041101  RH  023%=      5-min Rain = 0
KES1 092127Z 33003KT 11/M10 A3034 RMK A01 T01051095  RH  024%=      5-min Rain = 0
KES1 092128Z 33004KT 10/M10 A3034 RMK A01 T01021099  RH  023%=      5-min Rain = 0
KES1 092129Z 33004KT 10/M10 A3034 RMK A01 T00991102  RH  023%=      5-min Rain = 0
KES1 092130Z 32003KT 10/M11 A3034 RMK A01 T00971106  RH  023%=      5-min Rain = 0
KES1 092131Z 32001KT 10/M11 A3034 RMK A01 T00961106  RH  023%=      5-min Rain = 0
KES1 092132Z 29005KT 10/M10 A3034 RMK A01 T00961098  RH  024%=      5-min Rain = 0
KES1 092133Z 28005KT 10/M09 A3034 RMK A01 T00981093  RH  025%=      5-min Rain = 0
KES1 092134Z 29004KT 10/M10 A3034 RMK A01 T01001100  RH  023%=      5-min Rain = 0
KES1 092135Z 29003KT 10/M10 A3034 RMK A01 T01001099  RH  023%=      5-min Rain = 0
KES1 092136Z 30002KT 10/M10 A3034 RMK A01 T01001102  RH  023%=      5-min Rain = 0
KES1 092137Z 32003KT 10/M10 A3034 RMK A01 T01001095  RH  024%=      5-min Rain = 0
KES1 092138Z 31004KT 10/M09 A3034 RMK A01 T01001085  RH  026%=      5-min Rain = 0
KES1 092139Z 34002KT 10/M09 A3034 RMK A01 T01001091  RH  025%=      5-min Rain = 0
KES1 092140Z 35002KT 10/M09 A3033 RMK A01 T01001091  RH  025%=      5-min Rain = 0
KES1 092141Z 33001KT 10/M10 A3033 RMK A01 T00991095  RH  024%=      5-min Rain = 0
KES1 092142Z 31001KT 10/M09 A3033 RMK A01 T00991093  RH  025%=      5-min Rain = 0
KES1 092143Z 28003KT 10/M09 A3033 RMK A01 T00991093  RH  025%=      5-min Rain = 0
KES1 092144Z 27003KT 10/M09 A3033 RMK A01 T01001089  RH  026%=      5-min Rain = 0
KES1 092145Z 25004KT 10/M09 A3033 RMK A01 T01021087  RH  026%=      5-min Rain = 0
KES1 092146Z 24005KT 10/M09 A3033 RMK A01 T01041087  RH  025%=      5-min Rain = 0
KES1 092147Z 24005KT 10/M10 A3033 RMK A01 T01041095  RH  024%=      5-min Rain = 0
KES1 092148Z 22004KT 10/M09 A3033 RMK A01 T01021091  RH  025%=      5-min Rain = 0
KES1 092149Z 24003KT 10/M09 A3033 RMK A01 T01021091  RH  025%=      5-min Rain = 0
KES1 092150Z 24006KT 10/M09 A3033 RMK A01 T01021085  RH  026%=      5-min Rain = 0
KES1 092151Z 23007KT 10/M08 A3033 RMK A01 T01021082  RH  027%=      5-min Rain = 0
KES1 092152Z 23006KT 10/M08 A3033 RMK A01 T01031083  RH  026%=      5-min Rain = 0
KES1 092153Z 23005KT 10/M09 A3033 RMK A01 T01021086  RH  026%=      5-min Rain = 0
KES1 092154Z 22004KT 10/M09 A3033 RMK A01 T01021088  RH  025%=      5-min Rain = 0
KES1 092155Z 21004KT 10/M09 A3033 RMK A01 T01021088  RH  025%=      5-min Rain = 0
KES1 092156Z 21004KT 10/M09 A3033 RMK A01 T01021086  RH  026%=      5-min Rain = 0
KES1 092157Z 25004KT 10/M08 A3033 RMK A01 T01021083  RH  026%=      5-min Rain = 0
KES1 092158Z 26005KT 10/M09 A3033 RMK A01 T01031086  RH  026%=      5-min Rain = 0
KES1 092159Z 24004KT 10/M09 A3033 RMK A01 T01021085  RH  026%=      5-min Rain = 0
KES1 092200Z 27005KT 10/M08 A3033 RMK A01 T01021081  RH  027%=      5-min Rain = 0
KES1 092201Z 25006KT 10/M08 A3033 RMK A01 T01021083  RH  026%=      5-min Rain = 0
KES1 092202Z 26005KT 10/M09 A3033 RMK A01 T01021088  RH  025%=      5-min Rain = 0
KES1 092203Z 24005KT 10/M08 A3033 RMK A01 T01021084  RH  026%=      5-min Rain = 0
KES1 092204Z 24004KT 10/M09 A3033 RMK A01 T01031087  RH  025%=      5-min Rain = 0
KES1 092205Z 23004KT 10/M09 A3033 RMK A01 T01031090  RH  025%=      5-min Rain = 0
KES1 092206Z 25005KT 10/M09 A3033 RMK A01 T01031089  RH  025%=      5-min Rain = 0
KES1 092207Z 24004KT 10/M09 A3033 RMK A01 T01031094  RH  024%=      5-min Rain = 0
KES1 092208Z 25004KT 10/M09 A3033 RMK A01 T01021092  RH  025%=      5-min Rain = 0
KES1 092209Z 26004KT 10/M09 A3033 RMK A01 T01021090  RH  025%=      5-min Rain = 0
KES1 092210Z 26004KT 10/M09 A3033 RMK A01 T01021091  RH  025%=      5-min Rain = 0
KES1 092211Z 23004KT 10/M09 A3033 RMK A01 T01021092  RH  025%=      5-min Rain = 0
KES1 092212Z 21004KT 10/M09 A3033 RMK A01 T01021088  RH  025%=      5-min Rain = 0
KES1 092213Z 21003KT 10/M09 A3033 RMK A01 T01021087  RH  025%=      5-min Rain = 0
KES1 092214Z 21003KT 10/M09 A3033 RMK A01 T01021089  RH  025%=      5-min Rain = 0
KES1 092215Z 21003KT 10/M09 A3033 RMK A01 T01021089  RH  025%=      5-min Rain = 0
KES1 092216Z 23003KT 10/M09 A3033 RMK A01 T01021088  RH  025%=      5-min Rain = 0
KES1 092217Z 25003KT 10/M09 A3033 RMK A01 T01021087  RH  025%=      5-min Rain = 0
KES1 092218Z 23003KT 10/M09 A3033 RMK A01 T01021086  RH  026%=      5-min Rain = 0
KES1 092219Z 22006KT 10/M08 A3033 RMK A01 T01021080  RH  027%=      5-min Rain = 0
KES1 092220Z 22005KT 10/M08 A3033 RMK A01 T01031082  RH  027%=      5-min Rain = 0
KES1 092221Z 22005KT 10/M08 A3033 RMK A01 T01021084  RH  026%=      5-min Rain = 0
KES1 092222Z 22003KT 10/M09 A3033 RMK A01 T01011085  RH  026%=      5-min Rain = 0
KES1 092223Z 20003KT 10/M08 A3033 RMK A01 T01011083  RH  027%=      5-min Rain = 0
KES1 092224Z 20002KT 10/M08 A3033 RMK A01 T01011082  RH  027%=      5-min Rain = 0
KES1 092225Z 22002KT 10/M08 A3033 RMK A01 T01011083  RH  027%=      5-min Rain = 0
KES1 092226Z 21003KT 10/M08 A3033 RMK A01 T01021083  RH  026%=      5-min Rain = 0
KES1 092227Z 21005KT 10/M08 A3033 RMK A01 T01021082  RH  027%=      5-min Rain = 0
KES1 092228Z 23004KT 10/M08 A3034 RMK A01 T01021079  RH  027%=      5-min Rain = 0
KES1 092229Z 22004KT 10/M08 A3034 RMK A01 T01021080  RH  027%=      5-min Rain = 0
KES1 092230Z 24003KT 10/M08 A3034 RMK A01 T01021081  RH  027%=      5-min Rain = 0
KES1 092231Z 21002KT 10/M08 A3034 RMK A01 T01021079  RH  027%=      5-min Rain = 0
KES1 092232Z 23003KT 10/M08 A3034 RMK A01 T01021079  RH  027%=      5-min Rain = 0
KES1 092233Z 22004KT 10/M08 A3034 RMK A01 T01031081  RH  027%=      5-min Rain = 0
KES1 092234Z 23004KT 10/M08 A3034 RMK A01 T01021080  RH  027%=      5-min Rain = 0
KES1 092235Z 24005KT 10/M08 A3033 RMK A01 T01021075  RH  028%=      5-min Rain = 0
KES1 092236Z 23004KT 10/M08 A3033 RMK A01 T01021078  RH  027%=      5-min Rain = 0
KES1 092237Z 24004KT 10/M08 A3033 RMK A01 T01021080  RH  027%=      5-min Rain = 0
KES1 092238Z 25003KT 10/M08 A3033 RMK A01 T01021082  RH  027%=      5-min Rain = 0
KES1 092239Z 25003KT 10/M08 A3033 RMK A01 T01021081  RH  027%=      5-min Rain = 0
KES1 092240Z 23004KT 10/M08 A3033 RMK A01 T01011076  RH  028%=      5-min Rain = 0
KES1 092241Z 22004KT 10/M08 A3033 RMK A01 T01021081  RH  027%=      5-min Rain = 0
KES1 092242Z 22003KT 10/M08 A3033 RMK A01 T01021083  RH  026%=      5-min Rain = 0
KES1 092243Z 23002KT 10/M08 A3033 RMK A01 T01011081  RH  027%=      5-min Rain = 0
KES1 092244Z 23002KT 10/M08 A3033 RMK A01 T01011081  RH  027%=      5-min Rain = 0
KES1 092245Z 22003KT 10/M08 A3033 RMK A01 T01011080  RH  027%=      5-min Rain = 0
KES1 092246Z 21003KT 10/M08 A3033 RMK A01 T01021082  RH  027%=      5-min Rain = 0
KES1 092247Z 21003KT 10/M08 A3033 RMK A01 T01021080  RH  027%=      5-min Rain = 0
KES1 092248Z 23003KT 10/M08 A3033 RMK A01 T01021078  RH  027%=      5-min Rain = 0
KES1 092249Z 21003KT 10/M08 A3033 RMK A01 T01021078  RH  027%=      5-min Rain = 0
KES1 092250Z 23003KT 10/M08 A3033 RMK A01 T01011076  RH  028%=      5-min Rain = 0
KES1 092251Z 21003KT 10/M08 A3033 RMK A01 T01011077  RH  028%=      5-min Rain = 0
KES1 092252Z 22004KT 10/M08 A3033 RMK A01 T01011078  RH  027%=      5-min Rain = 0
KES1 092253Z 22004KT 10/M08 A3033 RMK A01 T01011080  RH  027%=      5-min Rain = 0
KES1 092254Z 22004KT 10/M08 A3033 RMK A01 T01001079  RH  028%=      5-min Rain = 0
KES1 092255Z 22004KT 10/M08 A3033 RMK A01 T00991077  RH  028%=      5-min Rain = 0
KES1 092256Z 22005KT 10/M08 A3033 RMK A01 T00991081  RH  027%=      5-min Rain = 0
KES1 092257Z 21004KT 10/M08 A3033 RMK A01 T00981081  RH  027%=      5-min Rain = 0
KES1 092258Z 21004KT 10/M08 A3033 RMK A01 T00971082  RH  027%=      5-min Rain = 0
KES1 092259Z 20004KT 10/M08 A3033 RMK A01 T00971082  RH  028%=      5-min Rain = 0
KES1 092300Z 21004KT 10/M08 A3033 RMK A01 T00961080  RH  028%=      5-min Rain = 0
KES1 092301Z 22004KT 10/M08 A3033 RMK A01 T00961079  RH  028%=      5-min Rain = 0
KES1 092302Z 22004KT 10/M08 A3033 RMK A01 T00961078  RH  029%=      5-min Rain = 0
KES1 092303Z 22004KT 10/M08 A3033 RMK A01 T00951079  RH  028%=      5-min Rain = 0
KES1 092304Z 22003KT 09/M08 A3033 RMK A01 T00941079  RH  029%=      5-min Rain = 0
KES1 092305Z 23004KT 09/M08 A3033 RMK A01 T00941076  RH  029%=      5-min Rain = 0
KES1 092306Z 23004KT 09/M08 A3033 RMK A01 T00941078  RH  029%=      5-min Rain = 0
KES1 092307Z 23004KT 09/M08 A3033 RMK A01 T00941078  RH  029%=      5-min Rain = 0
KES1 092308Z 22003KT 09/M08 A3033 RMK A01 T00931078  RH  029%=      5-min Rain = 0
KES1 092309Z 23003KT 09/M08 A3033 RMK A01 T00931077  RH  029%=      5-min Rain = 0
KES1 092310Z 23003KT 09/M08 A3033 RMK A01 T00921079  RH  029%=      5-min Rain = 0
KES1 092311Z 23003KT 09/M08 A3033 RMK A01 T00921078  RH  029%=      5-min Rain = 0
KES1 092312Z 23003KT 09/M08 A3033 RMK A01 T00921079  RH  029%=      5-min Rain = 0
KES1 092313Z 23003KT 09/M08 A3033 RMK A01 T00921077  RH  029%=      5-min Rain = 0
KES1 092314Z 23003KT 09/M08 A3033 RMK A01 T00921076  RH  030%=      5-min Rain = 0
KES1 092315Z 23002KT 09/M08 A3033 RMK A01 T00911075  RH  030%=      5-min Rain = 0
KES1 092316Z 24002KT 09/M08 A3033 RMK A01 T00911077  RH  030%=      5-min Rain = 0
KES1 092317Z 24002KT 09/M08 A3033 RMK A01 T00911079  RH  029%=      5-min Rain = 0
KES1 092318Z 24002KT 09/M08 A3033 RMK A01 T00901078  RH  030%=      5-min Rain = 0
KES1 092319Z 23002KT 09/M08 A3033 RMK A01 T00901079  RH  029%=      5-min Rain = 0
KES1 092320Z 23002KT 09/M08 A3033 RMK A01 T00891080  RH  029%=      5-min Rain = 0
KES1 092321Z 23002KT 09/M08 A3033 RMK A01 T00891080  RH  030%=      5-min Rain = 0
KES1 092322Z 23002KT 09/M08 A3033 RMK A01 T00881078  RH  030%=      5-min Rain = 0
KES1 092323Z 23002KT 09/M08 A3033 RMK A01 T00881078  RH  030%=      5-min Rain = 0
KES1 092324Z 23002KT 09/M08 A3033 RMK A01 T00881079  RH  030%=      5-min Rain = 0
KES1 092325Z 23002KT 09/M08 A3033 RMK A01 T00871079  RH  030%=      5-min Rain = 0
KES1 092326Z 23002KT 09/M08 A3033 RMK A01 T00861080  RH  030%=      5-min Rain = 0
KES1 092327Z 23002KT 09/M08 A3033 RMK A01 T00861081  RH  030%=      5-min Rain = 0
KES1 092328Z 23002KT 09/M08 A3033 RMK A01 T00861080  RH  030%=      5-min Rain = 0
KES1 092329Z 23002KT 09/M08 A3033 RMK A01 T00851080  RH  030%=      5-min Rain = 0
KES1 092330Z 23002KT 08/M08 A3033 RMK A01 T00841081  RH  030%=      5-min Rain = 0
KES1 092331Z 23002KT 08/M08 A3033 RMK A01 T00831081  RH  030%=      5-min Rain = 0
KES1 092332Z 23002KT 08/M08 A3033 RMK A01 T00821080  RH  031%=      5-min Rain = 0
KES1 092333Z 23002KT 08/M08 A3033 RMK A01 T00811080  RH  031%=      5-min Rain = 0
KES1 092334Z 23002KT 08/M08 A3033 RMK A01 T00801080  RH  031%=      5-min Rain = 0
KES1 092335Z 22002KT 08/M08 A3033 RMK A01 T00801080  RH  031%=      5-min Rain = 0
KES1 092336Z 21003KT 08/M08 A3033 RMK A01 T00781079  RH  032%=      5-min Rain = 0
KES1 092337Z 20003KT 08/M08 A3033 RMK A01 T00771079  RH  032%=      5-min Rain = 0
KES1 092338Z 20003KT 08/M08 A3033 RMK A01 T00761078  RH  033%=      5-min Rain = 0
KES1 092339Z 20003KT 08/M08 A3033 RMK A01 T00751077  RH  033%=      5-min Rain = 0
KES1 092340Z 20003KT 08/M08 A3033 RMK A01 T00751078  RH  033%=      5-min Rain = 0
KES1 092341Z 21002KT 08/M08 A3033 RMK A01 T00751079  RH  033%=      5-min Rain = 0
KES1 092342Z 21002KT 08/M08 A3033 RMK A01 T00751080  RH  032%=      5-min Rain = 0
KES1 092343Z 21002KT 07/M08 A3033 RMK A01 T00741080  RH  033%=      5-min Rain = 0
KES1 092344Z 21002KT 07/M08 A3033 RMK A01 T00741079  RH  033%=      5-min Rain = 0
KES1 092345Z 21002KT 07/M08 A3033 RMK A01 T00731078  RH  033%=      5-min Rain = 0
KES1 092346Z 21002KT 07/M07 A3033 RMK A01 T00711074  RH  035%=      5-min Rain = 0
KES1 092347Z 21002KT 07/M08 A3033 RMK A01 T00681075  RH  035%=      5-min Rain = 0
KES1 092348Z 21002KT 07/M08 A3033 RMK A01 T00671076  RH  035%=      5-min Rain = 0
KES1 092349Z 21002KT 07/M08 A3033 RMK A01 T00661077  RH  035%=      5-min Rain = 0
KES1 092350Z 21002KT 07/M08 A3033 RMK A01 T00661076  RH  036%=      5-min Rain = 0
KES1 092351Z 21002KT 07/M08 A3033 RMK A01 T00651077  RH  036%=      5-min Rain = 0
KES1 092352Z 21002KT 06/M08 A3033 RMK A01 T00641077  RH  036%=      5-min Rain = 0
KES1 092353Z 21002KT 06/M08 A3033 RMK A01 T00621075  RH  037%=      5-min Rain = 0
KES1 092354Z 21002KT 06/M08 A3033 RMK A01 T00601075  RH  037%=      5-min Rain = 0
KES1 092355Z 21002KT 06/M08 A3033 RMK A01 T00581075  RH  038%=      5-min Rain = 0
KES1 092356Z 22002KT 06/M08 A3033 RMK A01 T00581081  RH  036%=      5-min Rain = 0
KES1 092357Z 22002KT 06/M08 A3034 RMK A01 T00601083  RH  035%=      5-min Rain = 0
KES1 092358Z 22001KT 06/M08 A3034 RMK A01 T00621082  RH  035%=      5-min Rain = 0
KES1 092359Z 22001KT 06/M08 A3034 RMK A01 T00631080  RH  035%=      5-min Rain = 0
KES1 100000Z 22002KT 06/M08 A3034 RMK A01 T00621076  RH  036%=      5-min Rain = 0
KES1 100001Z 22002KT 06/M08 A3034 RMK A01 T00601076  RH  037%=      5-min Rain = 0
KES1 100002Z 22002KT 06/M08 A3034 RMK A01 T00571076  RH  038%=      5-min Rain = 0
KES1 100003Z 22002KT 05/M08 A3034 RMK A01 T00541075  RH  039%=      5-min Rain = 0
KES1 100004Z 21002KT 05/M07 A3034 RMK A01 T00511074  RH  040%=      5-min Rain = 0
KES1 100005Z 19003KT 05/M08 A3034 RMK A01 T00491076  RH  040%=      5-min Rain = 0
KES1 100006Z 19003KT 05/M08 A3034 RMK A01 T00481075  RH  041%=      5-min Rain = 0
KES1 100007Z 19004KT 05/M08 A3034 RMK A01 T00471076  RH  040%=      5-min Rain = 0
KES1 100008Z 18005KT 05/M07 A3034 RMK A01 T00481074  RH  041%=      5-min Rain = 0
KES1 100009Z 17004KT 05/M07 A3034 RMK A01 T00461073  RH  042%=      5-min Rain = 0
KES1 100010Z 17004KT 05/M08 A3034 RMK A01 T00471077  RH  040%=      5-min Rain = 0
KES1 100011Z 17005KT 05/M08 A3034 RMK A01 T00491075  RH  040%=      5-min Rain = 0
KES1 100012Z 16005KT 05/M08 A3034 RMK A01 T00491075  RH  040%=      5-min Rain = 0
KES1 100013Z 17006KT 05/M08 A3034 RMK A01 T00491075  RH  040%=      5-min Rain = 0
KES1 100014Z 17006KT 05/M07 A3034 RMK A01 T00491074  RH  040%=      5-min Rain = 0
KES1 100015Z 17006KT 05/M07 A3034 RMK A01 T00501073  RH  041%=      5-min Rain = 0
KES1 100016Z 17006KT 05/M07 A3034 RMK A01 T00501070  RH  041%=      5-min Rain = 0
KES1 100017Z 17006KT 05/M07 A3034 RMK A01 T00521069  RH  041%=      5-min Rain = 0
KES1 100018Z 17006KT 05/M07 A3034 RMK A01 T00531067  RH  041%=      5-min Rain = 0
KES1 100019Z 18006KT 05/M07 A3034 RMK A01 T00541067  RH  042%=      5-min Rain = 0
KES1 100020Z 18006KT 05/M07 A3034 RMK A01 T00541066  RH  042%=      5-min Rain = 0
KES1 100021Z 18006KT 06/M07 A3034 RMK A01 T00551066  RH  041%=      5-min Rain = 0
KES1 100022Z 18006KT 06/M07 A3034 RMK A01 T00561066  RH  041%=      5-min Rain = 0
KES1 100023Z 18006KT 06/M07 A3034 RMK A01 T00571065  RH  041%=      5-min Rain = 0
KES1 100024Z 18006KT 06/M07 A3034 RMK A01 T00561065  RH  041%=      5-min Rain = 0
KES1 100025Z 18006KT 06/M07 A3034 RMK A01 T00561065  RH  042%=      5-min Rain = 0
KES1 100026Z 18006KT 06/M07 A3034 RMK A01 T00551065  RH  042%=      5-min Rain = 0
KES1 100027Z 18007KT 06/M06 A3034 RMK A01 T00551064  RH  042%=      5-min Rain = 0
KES1 100028Z 19006KT 06/M06 A3034 RMK A01 T00551064  RH  042%=      5-min Rain = 0
KES1 100029Z 19006KT 06/M06 A3034 RMK A01 T00561063  RH  042%=      5-min Rain = 0
KES1 100030Z 19006KT 06/M06 A3034 RMK A01 T00561064  RH  042%=      5-min Rain = 0
KES1 100031Z 19005KT 06/M07 A3034 RMK A01 T00561065  RH  041%=      5-min Rain = 0
KES1 100032Z 19005KT 06/M07 A3034 RMK A01 T00571065  RH  041%=      5-min Rain = 0
KES1 100033Z 19005KT 06/M07 A3034 RMK A01 T00571066  RH  041%=      5-min Rain = 0
KES1 100034Z 19005KT 06/M07 A3034 RMK A01 T00571066  RH  041%=      5-min Rain = 0
KES1 100035Z 19006KT 06/M07 A3035 RMK A01 T00561065  RH  041%=      5-min Rain = 0
KES1 100036Z 19006KT 06/M07 A3035 RMK A01 T00561066  RH  041%=      5-min Rain = 0
KES1 100037Z 20006KT 06/M07 A3035 RMK A01 T00561065  RH  042%=      5-min Rain = 0
KES1 100038Z 20005KT 06/M07 A3035 RMK A01 T00561065  RH  041%=      5-min Rain = 0
KES1 100039Z 20005KT 06/M07 A3035 RMK A01 T00561065  RH  041%=      5-min Rain = 0
KES1 100040Z 20005KT 06/M07 A3035 RMK A01 T00561066  RH  041%=      5-min Rain = 0
KES1 100041Z 21005KT 06/M07 A3035 RMK A01 T00571067  RH  041%=      5-min Rain = 0
KES1 100042Z 21005KT 06/M07 A3035 RMK A01 T00571068  RH  040%=      5-min Rain = 0
KES1 100043Z 21005KT 06/M07 A3035 RMK A01 T00581068  RH  040%=      5-min Rain = 0
KES1 100044Z 21005KT 06/M07 A3035 RMK A01 T00581069  RH  040%=      5-min Rain = 0
KES1 100045Z 21005KT 06/M07 A3035 RMK A01 T00591070  RH  039%=      5-min Rain = 0
KES1 100046Z 21005KT 06/M07 A3035 RMK A01 T00591070  RH  039%=      5-min Rain = 0
KES1 100047Z 21005KT 06/M07 A3035 RMK A01 T00591070  RH  039%=      5-min Rain = 0
KES1 100048Z 20005KT 06/M07 A3035 RMK A01 T00601069  RH  039%=      5-min Rain = 0
KES1 100049Z 20005KT 06/M07 A3035 RMK A01 T00601069  RH  039%=      5-min Rain = 0
KES1 100050Z 20005KT 06/M07 A3035 RMK A01 T00591068  RH  040%=      5-min Rain = 0
KES1 100051Z 21006KT 06/M07 A3035 RMK A01 T00591068  RH  040%=      5-min Rain = 0
KES1 100052Z 21005KT 06/M07 A3035 RMK A01 T00581067  RH  040%=      5-min Rain = 0
KES1 100053Z 21005KT 06/M07 A3035 RMK A01 T00581068  RH  040%=      5-min Rain = 0
KES1 100054Z 21005KT 06/M07 A3035 RMK A01 T00571068  RH  040%=      5-min Rain = 0
KES1 100055Z 21005KT 06/M07 A3035 RMK A01 T00571068  RH  040%=      5-min Rain = 0
KES1 100056Z 20005KT 06/M07 A3035 RMK A01 T00561069  RH  040%=      5-min Rain = 0
KES1 100057Z 20005KT 06/M07 A3035 RMK A01 T00561070  RH  040%=      5-min Rain = 0
KES1 100058Z 20005KT 06/M07 A3035 RMK A01 T00561070  RH  040%=      5-min Rain = 0
KES1 100059Z 21005KT 06/M07 A3035 RMK A01 T00561070  RH  040%=      5-min Rain = 0
KES1 100100Z 21005KT 06/M07 A3035 RMK A01 T00561071  RH  039%=      5-min Rain = 0
KES1 100101Z 21005KT 06/M07 A3035 RMK A01 T00561072  RH  039%=      5-min Rain = 0
KES1 100102Z 21005KT 06/M07 A3035 RMK A01 T00561072  RH  039%=      5-min Rain = 0
KES1 100103Z 21005KT 06/M07 A3035 RMK A01 T00551072  RH  039%=      5-min Rain = 0
KES1 100104Z 21005KT 06/M07 A3035 RMK A01 T00551072  RH  039%=      5-min Rain = 0
KES1 100105Z 21005KT 05/M07 A3035 RMK A01 T00541073  RH  039%=      5-min Rain = 0
KES1 100106Z 20005KT 05/M07 A3035 RMK A01 T00531073  RH  040%=      5-min Rain = 0
KES1 100107Z 20005KT 05/M07 A3035 RMK A01 T00541074  RH  039%=      5-min Rain = 0
KES1 100108Z 20005KT 05/M07 A3035 RMK A01 T00541074  RH  039%=      5-min Rain = 0
KES1 100109Z 20005KT 05/M07 A3035 RMK A01 T00541073  RH  039%=      5-min Rain = 0
KES1 100110Z 20005KT 05/M07 A3035 RMK A01 T00531074  RH  039%=      5-min Rain = 0
KES1 100111Z 21005KT 05/M07 A3035 RMK A01 T00521074  RH  040%=      5-min Rain = 0
KES1 100112Z 21005KT 05/M07 A3035 RMK A01 T00521074  RH  040%=      5-min Rain = 0
KES1 100113Z 21005KT 05/M07 A3035 RMK A01 T00511074  RH  040%=      5-min Rain = 0
KES1 100114Z 21005KT 05/M08 A3035 RMK A01 T00501075  RH  040%=      5-min Rain = 0
KES1 100115Z 21005KT 05/M08 A3035 RMK A01 T00501075  RH  040%=      5-min Rain = 0
KES1 100116Z 21005KT 05/M07 A3035 RMK A01 T00491074  RH  040%=      5-min Rain = 0
KES1 100117Z 21004KT 05/M08 A3035 RMK A01 T00491075  RH  040%=      5-min Rain = 0
KES1 100118Z 21004KT 05/M08 A3036 RMK A01 T00481075  RH  040%=      5-min Rain = 0
KES1 100119Z 21004KT 05/M08 A3036 RMK A01 T00471076  RH  041%=      5-min Rain = 0
KES1 100120Z 22005KT 05/M08 A3036 RMK A01 T00461075  RH  041%=      5-min Rain = 0
KES1 100121Z 22005KT 05/M08 A3036 RMK A01 T00451076  RH  041%=      5-min Rain = 0
KES1 100122Z 22005KT 04/M07 A3036 RMK A01 T00441074  RH  042%=      5-min Rain = 0
KES1 100123Z 22005KT 04/M07 A3036 RMK A01 T00421074  RH  043%=      5-min Rain = 0
KES1 100124Z 22004KT 04/M07 A3036 RMK A01 T00411074  RH  043%=      5-min Rain = 0
KES1 100125Z 22004KT 04/M08 A3036 RMK A01 T00401075  RH  043%=      5-min Rain = 0
KES1 100126Z 21004KT 04/M08 A3036 RMK A01 T00391075  RH  043%=      5-min Rain = 0
KES1 100127Z 21005KT 04/M08 A3036 RMK A01 T00391076  RH  043%=      5-min Rain = 0
KES1 100128Z 21005KT 04/M08 A3036 RMK A01 T00391075  RH  043%=      5-min Rain = 0
KES1 100129Z 22005KT 04/M08 A3036 RMK A01 T00391076  RH  043%=      5-min Rain = 0
KES1 100130Z 21005KT 04/M08 A3036 RMK A01 T00391076  RH  043%=      5-min Rain = 0
KES1 100131Z 22005KT 04/M08 A3036 RMK A01 T00401075  RH  043%=      5-min Rain = 0
KES1 100132Z 21005KT 04/M08 A3036 RMK A01 T00391076  RH  043%=      5-min Rain = 0
KES1 100133Z 21005KT 04/M08 A3036 RMK A01 T00391076  RH  043%=      5-min Rain = 0
KES1 100134Z 21005KT 04/M08 A3036 RMK A01 T00391076  RH  043%=      5-min Rain = 0
KES1 100135Z 22005KT 04/M08 A3036 RMK A01 T00391076  RH  043%=      5-min Rain = 0
KES1 100136Z 22005KT 04/M08 A3036 RMK A01 T00391076  RH  043%=      5-min Rain = 0
KES1 100137Z 22005KT 04/M08 A3036 RMK A01 T00381075  RH  043%=      5-min Rain = 0
KES1 100138Z 22006KT 04/M08 A3036 RMK A01 T00371075  RH  044%=      5-min Rain = 0
KES1 100139Z 22005KT 04/M08 A3036 RMK A01 T00361075  RH  044%=      5-min Rain = 0
KES1 100140Z 22005KT 04/M08 A3036 RMK A01 T00351075  RH  044%=      5-min Rain = 0
KES1 100141Z 22006KT 04/M08 A3036 RMK A01 T00351075  RH  044%=      5-min Rain = 0
KES1 100142Z 22006KT 03/M07 A3036 RMK A01 T00341074  RH  045%=      5-min Rain = 0
KES1 100143Z 22006KT 03/M07 A3036 RMK A01 T00341074  RH  045%=      5-min Rain = 0
KES1 100144Z 22006KT 03/M07 A3036 RMK A01 T00341074  RH  045%=      5-min Rain = 0
KES1 100145Z 22006KT 03/M07 A3036 RMK A01 T00331073  RH  045%=      5-min Rain = 0
KES1 100146Z 22006KT 03/M07 A3036 RMK A01 T00331073  RH  046%=      5-min Rain = 0
KES1 100147Z 22006KT 03/M07 A3036 RMK A01 T00321073  RH  046%=      5-min Rain = 0
KES1 100148Z 22006KT 03/M07 A3036 RMK A01 T00321073  RH  046%=      5-min Rain = 0
KES1 100149Z 22007KT 03/M07 A3036 RMK A01 T00321073  RH  046%=      5-min Rain = 0
KES1 100150Z 22006KT 03/M07 A3036 RMK A01 T00321073  RH  046%=      5-min Rain = 0
KES1 100151Z 22006KT 03/M07 A3035 RMK A01 T00321073  RH  046%=      5-min Rain = 0
KES1 100152Z 22006KT 03/M07 A3035 RMK A01 T00331073  RH  046%=      5-min Rain = 0
KES1 100153Z 22007KT 03/M07 A3035 RMK A01 T00341073  RH  045%=      5-min Rain = 0
KES1 100154Z 22007KT 04/M07 A3035 RMK A01 T00351073  RH  045%=      5-min Rain = 0
KES1 100155Z 22007KT 03/M07 A3035 RMK A01 T00341073  RH  045%=      5-min Rain = 0
KES1 100156Z 21007KT 04/M07 A3035 RMK A01 T00351072  RH  045%=      5-min Rain = 0
KES1 100157Z 21007KT 04/M07 A3035 RMK A01 T00361072  RH  045%=      5-min Rain = 0
KES1 100158Z 21007KT 04/M07 A3035 RMK A01 T00371071  RH  045%=      5-min Rain = 0
KES1 100159Z 21007KT 04/M07 A3035 RMK A01 T00381071  RH  045%=      5-min Rain = 0
KES1 100200Z 21007KT 04/M07 A3035 RMK A01 T00391071  RH  045%=      5-min Rain = 0
KES1 100201Z 21007KT 04/M07 A3035 RMK A01 T00391070  RH  045%=      5-min Rain = 0
KES1 100202Z 21007KT 04/M07 A3035 RMK A01 T00391070  RH  045%=      5-min Rain = 0
KES1 100203Z 22007KT 04/M07 A3035 RMK A01 T00401069  RH  045%=      5-min Rain = 0
KES1 100204Z 21006KT 04/M07 A3035 RMK A01 T00401068  RH  045%=      5-min Rain = 0
KES1 100205Z 21006KT 04/M07 A3035 RMK A01 T00401068  RH  045%=      5-min Rain = 0
KES1 100206Z 21006KT 04/M07 A3035 RMK A01 T00391068  RH  045%=      5-min Rain = 0
KES1 100207Z 21007KT 04/M07 A3035 RMK A01 T00391068  RH  045%=      5-min Rain = 0
KES1 100208Z 21007KT 04/M07 A3035 RMK A01 T00401068  RH  045%=      5-min Rain = 0
KES1 100209Z 20007KT 04/M07 A3035 RMK A01 T00401068  RH  045%=      5-min Rain = 0
KES1 100210Z 20006KT 04/M07 A3035 RMK A01 T00411068  RH  045%=      5-min Rain = 0
KES1 100211Z 21007KT 04/M07 A3035 RMK A01 T00411067  RH  045%=      5-min Rain = 0
KES1 100212Z 21007KT 04/M07 A3035 RMK A01 T00411067  RH  045%=      5-min Rain = 0
KES1 100213Z 20007KT 04/M07 A3035 RMK A01 T00421066  RH  045%=      5-min Rain = 0
KES1 100214Z 20007KT 04/M07 A3035 RMK A01 T00421066  RH  045%=      5-min Rain = 0
KES1 100215Z 20007KT 04/M07 A3035 RMK A01 T00401067  RH  046%=      5-min Rain = 0
KES1 100216Z 20007KT 04/M07 A3035 RMK A01 T00391067  RH  046%=      5-min Rain = 0
KES1 100217Z 20007KT 04/M07 A3035 RMK A01 T00371067  RH  047%=      5-min Rain = 0
KES1 100218Z 20008KT 04/M07 A3035 RMK A01 T00361067  RH  047%=      5-min Rain = 0
KES1 100219Z 20008KT 03/M07 A3035 RMK A01 T00341066  RH  048%=      5-min Rain = 0
KES1 100220Z 20007KT 03/M07 A3036 RMK A01 T00341066  RH  048%=      5-min Rain = 0
KES1 100221Z 20007KT 03/M07 A3036 RMK A01 T00331066  RH  049%=      5-min Rain = 0
KES1 100222Z 20007KT 03/M07 A3036 RMK A01 T00311066  RH  049%=      5-min Rain = 0
KES1 100223Z 20007KT 03/M07 A3036 RMK A01 T00311066  RH  049%=      5-min Rain = 0
KES1 100224Z 20007KT 03/M07 A3036 RMK A01 T00311066  RH  049%=      5-min Rain = 0
KES1 100225Z 20007KT 03/M07 A3036 RMK A01 T00311066  RH  049%=      5-min Rain = 0
KES1 100226Z 21007KT 03/M07 A3036 RMK A01 T00301066  RH  049%=      5-min Rain = 0
KES1 100227Z 21007KT 03/M07 A3036 RMK A01 T00291066  RH  050%=      5-min Rain = 0
KES1 100228Z 21007KT 03/M07 A3036 RMK A01 T00281065  RH  050%=      5-min Rain = 0
KES1 100229Z 21007KT 03/M07 A3036 RMK A01 T00281065  RH  050%=      5-min Rain = 0
KES1 100230Z 21007KT 03/M07 A3036 RMK A01 T00271065  RH  051%=      5-min Rain = 0
KES1 100231Z 21007KT 03/M07 A3036 RMK A01 T00261065  RH  051%=      5-min Rain = 0
KES1 100232Z 21007KT 03/M07 A3036 RMK A01 T00261065  RH  051%=      5-min Rain = 0
KES1 100233Z 21007KT 03/M07 A3036 RMK A01 T00251065  RH  052%=      5-min Rain = 0
KES1 100234Z 22007KT 02/M07 A3036 RMK A01 T00241065  RH  052%=      5-min Rain = 0
KES1 100235Z 22007KT 02/M07 A3036 RMK A01 T00231065  RH  052%=      5-min Rain = 0
KES1 100236Z 22007KT 02/M07 A3036 RMK A01 T00221065  RH  053%=      5-min Rain = 0
KES1 100237Z 22007KT 02/M06 A3036 RMK A01 T00221064  RH  053%=      5-min Rain = 0
KES1 100238Z 22007KT 02/M06 A3036 RMK A01 T00211064  RH  053%=      5-min Rain = 0
KES1 100239Z 22007KT 02/M06 A3036 RMK A01 T00211064  RH  053%=      5-min Rain = 0
KES1 100240Z 22007KT 02/M06 A3036 RMK A01 T00211064  RH  053%=      5-min Rain = 0
KES1 100241Z 22007KT 02/M06 A3036 RMK A01 T00211064  RH  053%=      5-min Rain = 0
KES1 100242Z 22007KT 02/M06 A3036 RMK A01 T00211064  RH  053%=      5-min Rain = 0
KES1 100243Z 22007KT 02/M06 A3036 RMK A01 T00221063  RH  053%=      5-min Rain = 0
KES1 100244Z 22008KT 02/M06 A3036 RMK A01 T00221063  RH  053%=      5-min Rain = 0
KES1 100245Z 22008KT 02/M06 A3036 RMK A01 T00211063  RH  054%=      5-min Rain = 0
KES1 100246Z 22007KT 02/M06 A3036 RMK A01 T00211062  RH  054%=      5-min Rain = 0
KES1 100247Z 22007KT 02/M06 A3036 RMK A01 T00221062  RH  054%=      5-min Rain = 0
KES1 100248Z 22007KT 02/M06 A3036 RMK A01 T00221061  RH  054%=      5-min Rain = 0
KES1 100249Z 22007KT 02/M06 A3036 RMK A01 T00211062  RH  054%=      5-min Rain = 0
KES1 100250Z 22007KT 02/M06 A3036 RMK A01 T00211062  RH  054%=      5-min Rain = 0
KES1 100251Z 23007KT 02/M06 A3036 RMK A01 T00211062  RH  054%=      5-min Rain = 0
KES1 100252Z 23006KT 02/M06 A3036 RMK A01 T00211061  RH  054%=      5-min Rain = 0
KES1 100253Z 23007KT 02/M06 A3036 RMK A01 T00211062  RH  055%=      5-min Rain = 0
KES1 100254Z 23006KT 02/M06 A3037 RMK A01 T00201061  RH  055%=      5-min Rain = 0
KES1 100255Z 23006KT 02/M06 A3037 RMK A01 T00191062  RH  055%=      5-min Rain = 0
KES1 100256Z 23006KT 02/M06 A3037 RMK A01 T00191061  RH  056%=      5-min Rain = 0
KES1 100257Z 23007KT 02/M06 A3037 RMK A01 T00171062  RH  056%=      5-min Rain = 0
KES1 100258Z 23007KT 02/M06 A3037 RMK A01 T00171061  RH  056%=      5-min Rain = 0
KES1 100259Z 23007KT 02/M06 A3037 RMK A01 T00161061  RH  057%=      5-min Rain = 0
KES1 100300Z 23006KT 02/M06 A3037 RMK A01 T00161061  RH  057%=      5-min Rain = 0
KES1 100301Z 23006KT 02/M06 A3037 RMK A01 T00161060  RH  057%=      5-min Rain = 0
KES1 100302Z 23006KT 02/M06 A3037 RMK A01 T00161060  RH  057%=      5-min Rain = 0
KES1 100303Z 23006KT 02/M06 A3037 RMK A01 T00151060  RH  057%=      5-min Rain = 0
KES1 100304Z 23006KT 02/M06 A3037 RMK A01 T00151060  RH  057%=      5-min Rain = 0
KES1 100305Z 23006KT 02/M06 A3037 RMK A01 T00151060  RH  057%=      5-min Rain = 0
KES1 100306Z 23006KT 02/M06 A3037 RMK A01 T00151061  RH  057%=      5-min Rain = 0
KES1 100307Z 23006KT 02/M06 A3037 RMK A01 T00151060  RH  057%=      5-min Rain = 0
KES1 100308Z 23006KT 02/M06 A3037 RMK A01 T00151060  RH  057%=      5-min Rain = 0
KES1 100309Z 23006KT 02/M06 A3037 RMK A01 T00151059  RH  058%=      5-min Rain = 0
KES1 100310Z 23006KT 02/M06 A3037 RMK A01 T00151059  RH  058%=      5-min Rain = 0
KES1 100311Z 23005KT 02/M06 A3037 RMK A01 T00151059  RH  058%=      5-min Rain = 0
KES1 100312Z 24005KT 02/M06 A3037 RMK A01 T00151059  RH  058%=      5-min Rain = 0
KES1 100313Z 25004KT 01/M06 A3037 RMK A01 T00141059  RH  058%=      5-min Rain = 0
KES1 100314Z 24004KT 01/M06 A3037 RMK A01 T00141059  RH  058%=      5-min Rain = 0
KES1 100315Z 24005KT 01/M06 A3037 RMK A01 T00141059  RH  058%=      5-min Rain = 0
KES1 100316Z 25005KT 01/M06 A3037 RMK A01 T00141059  RH  058%=      5-min Rain = 0
KES1 100317Z 25004KT 01/M06 A3037 RMK A01 T00131060  RH  058%=      5-min Rain = 0
KES1 100318Z 24005KT 01/M06 A3037 RMK A01 T00121061  RH  059%=      5-min Rain = 0
KES1 100319Z 25005KT 01/M06 A3037 RMK A01 T00101061  RH  059%=      5-min Rain = 0
KES1 100320Z 25005KT 01/M06 A3037 RMK A01 T00091061  RH  059%=      5-min Rain = 0
KES1 100321Z 24005KT 01/M06 A3037 RMK A01 T00081062  RH  060%=      5-min Rain = 0
KES1 100322Z 24005KT 01/M06 A3037 RMK A01 T00071062  RH  060%=      5-min Rain = 0
KES1 100323Z 24005KT 01/M06 A3037 RMK A01 T00051062  RH  061%=      5-min Rain = 0
KES1 100324Z 24005KT 00/M06 A3037 RMK A01 T00041063  RH  061%=      5-min Rain = 0
KES1 100325Z 24005KT 00/M06 A3037 RMK A01 T00031062  RH  061%=      5-min Rain = 0
KES1 100326Z 24005KT 00/M06 A3036 RMK A01 T00031062  RH  062%=      5-min Rain = 0
KES1 100327Z 24005KT 00/M06 A3036 RMK A01 T00041061  RH  062%=      5-min Rain = 0
KES1 100328Z 23005KT 00/M06 A3036 RMK A01 T00041061  RH  062%=      5-min Rain = 0
KES1 100329Z 23005KT 01/M06 A3036 RMK A01 T00051060  RH  062%=      5-min Rain = 0
KES1 100330Z 23005KT 01/M06 A3036 RMK A01 T00051059  RH  062%=      5-min Rain = 0
KES1 100331Z 24005KT 01/M06 A3037 RMK A01 T00061058  RH  062%=      5-min Rain = 0
KES1 100332Z 24005KT 01/M06 A3036 RMK A01 T00061057  RH  063%=      5-min Rain = 0
KES1 100333Z 24004KT 01/M06 A3036 RMK A01 T00061057  RH  063%=      5-min Rain = 0
KES1 100334Z 24004KT 01/M06 A3036 RMK A01 T00061056  RH  063%=      5-min Rain = 0
KES1 100335Z 24004KT 01/M06 A3036 RMK A01 T00061056  RH  063%=      5-min Rain = 0
KES1 100336Z 24004KT 01/M06 A3036 RMK A01 T00071056  RH  063%=      5-min Rain = 0
KES1 100337Z 24004KT 01/M06 A3036 RMK A01 T00071055  RH  063%=      5-min Rain = 0
KES1 100338Z 24004KT 01/M06 A3036 RMK A01 T00071055  RH  063%=      5-min Rain = 0
KES1 100339Z 24004KT 01/M05 A3036 RMK A01 T00081054  RH  063%=      5-min Rain = 0
KES1 100340Z 24004KT 01/M05 A3036 RMK A01 T00081054  RH  063%=      5-min Rain = 0
KES1 100341Z 24005KT 01/M05 A3036 RMK A01 T00081053  RH  064%=      5-min Rain = 0
KES1 100342Z 24005KT 01/M05 A3036 RMK A01 T00081053  RH  064%=      5-min Rain = 0
KES1 100343Z 24005KT 01/M05 A3036 RMK A01 T00081052  RH  064%=      5-min Rain = 0
KES1 100344Z 24005KT 01/M05 A3036 RMK A01 T00081052  RH  064%=      5-min Rain = 0
KES1 100345Z 23005KT 01/M05 A3036 RMK A01 T00081051  RH  065%=      5-min Rain = 0
KES1 100346Z 23005KT 01/M05 A3036 RMK A01 T00091050  RH  065%=      5-min Rain = 0
KES1 100347Z 24005KT 01/M05 A3036 RMK A01 T00091049  RH  065%=      5-min Rain = 0
KES1 100348Z 23005KT 01/M05 A3036 RMK A01 T00101046  RH  066%=      5-min Rain = 0
KES1 100349Z 23005KT 01/M04 A3036 RMK A01 T00121044  RH  066%=      5-min Rain = 0
KES1 100350Z 24005KT 01/M04 A3036 RMK A01 T00131043  RH  066%=      5-min Rain = 0
KES1 100351Z 23005KT 02/M04 A3036 RMK A01 T00151040  RH  067%=      5-min Rain = 0
KES1 100352Z 24005KT 02/M04 A3036 RMK A01 T00161040  RH  066%=      5-min Rain = 0
KES1 100353Z 24005KT 02/M04 A3036 RMK A01 T00161040  RH  066%=      5-min Rain = 0
KES1 100354Z 23005KT 02/M04 A3036 RMK A01 T00181038  RH  066%=      5-min Rain = 0
KES1 100355Z 23005KT 02/M04 A3036 RMK A01 T00191037  RH  066%=      5-min Rain = 0
KES1 100356Z 23005KT 02/M04 A3036 RMK A01 T00211038  RH  065%=      5-min Rain = 0
KES1 100357Z 23005KT 02/M04 A3036 RMK A01 T00211038  RH  065%=      5-min Rain = 0
KES1 100358Z 23005KT 02/M04 A3036 RMK A01 T00201039  RH  065%=      5-min Rain = 0
KES1 100359Z 23005KT 02/M04 A3036 RMK A01 T00201038  RH  065%=      5-min Rain = 0
KES1 100400Z 23005KT 02/M04 A3036 RMK A01 T00201038  RH  066%=      5-min Rain = 0
KES1 100401Z 23005KT 02/M04 A3036 RMK A01 T00191038  RH  066%=      5-min Rain = 0
KES1 100402Z 23005KT 02/M04 A3035 RMK A01 T00191038  RH  066%=      5-min Rain = 0
KES1 100403Z 23005KT 02/M04 A3035 RMK A01 T00191037  RH  066%=      5-min Rain = 0
KES1 100404Z 23005KT 02/M04 A3036 RMK A01 T00181037  RH  066%=      5-min Rain = 0
KES1 100405Z 23005KT 02/M04 A3036 RMK A01 T00181038  RH  066%=      5-min Rain = 0
KES1 100406Z 23005KT 02/M04 A3036 RMK A01 T00181038  RH  067%=      5-min Rain = 0
KES1 100407Z 23005KT 02/M04 A3036 RMK A01 T00181038  RH  067%=      5-min Rain = 0
KES1 100408Z 23005KT 02/M04 A3036 RMK A01 T00181038  RH  067%=      5-min Rain = 0
KES1 100409Z 23005KT 02/M04 A3036 RMK A01 T00171038  RH  067%=      5-min Rain = 0
KES1 100410Z 24005KT 02/M04 A3036 RMK A01 T00171038  RH  067%=      5-min Rain = 0
KES1 100411Z 24005KT 02/M04 A3036 RMK A01 T00161037  RH  067%=      5-min Rain = 0
KES1 100412Z 23005KT 02/M04 A3036 RMK A01 T00161037  RH  068%=      5-min Rain = 0
KES1 100413Z 23005KT 02/M04 A3036 RMK A01 T00161036  RH  069%=      5-min Rain = 0
KES1 100414Z 23005KT 02/M04 A3036 RMK A01 T00161035  RH  069%=      5-min Rain = 0
KES1 100415Z 24005KT 02/M04 A3036 RMK A01 T00161035  RH  069%=      5-min Rain = 0
KES1 100416Z 24004KT 02/M04 A3036 RMK A01 T00161035  RH  069%=      5-min Rain = 0
KES1 100417Z 24004KT 02/M04 A3036 RMK A01 T00161035  RH  069%=      5-min Rain = 0
KES1 100418Z 24004KT 02/M04 A3036 RMK A01 T00161035  RH  069%=      5-min Rain = 0
KES1 100419Z 24004KT 02/M04 A3036 RMK A01 T00151035  RH  069%=      5-min Rain = 0
KES1 100420Z 24004KT 02/M04 A3036 RMK A01 T00151035  RH  069%=      5-min Rain = 0
KES1 100421Z 24004KT 02/M04 A3036 RMK A01 T00151035  RH  069%=      5-min Rain = 0
KES1 100422Z 24004KT 02/M04 A3036 RMK A01 T00151035  RH  069%=      5-min Rain = 0
KES1 100423Z 24004KT 02/M03 A3036 RMK A01 T00161034  RH  069%=      5-min Rain = 0
KES1 100424Z 26004KT 02/M03 A3036 RMK A01 T00161034  RH  069%=      5-min Rain = 0
KES1 100425Z 26005KT 02/M03 A3036 RMK A01 T00161034  RH  070%=      5-min Rain = 0
KES1 100426Z 26004KT 02/M03 A3036 RMK A01 T00161034  RH  069%=      5-min Rain = 0
KES1 100427Z 26004KT 02/M03 A3036 RMK A01 T00161034  RH  069%=      5-min Rain = 0
KES1 100428Z 27004KT 02/M03 A3036 RMK A01 T00161033  RH  070%=      5-min Rain = 0
KES1 100429Z 28003KT 02/M03 A3036 RMK A01 T00171032  RH  070%=      5-min Rain = 0
KES1 100430Z 27004KT 02/M03 A3036 RMK A01 T00181032  RH  069%=      5-min Rain = 0
KES1 100431Z 27004KT 02/M03 A3036 RMK A01 T00171033  RH  069%=      5-min Rain = 0
KES1 100432Z 26004KT 02/M03 A3036 RMK A01 T00181033  RH  069%=      5-min Rain = 0
KES1 100433Z 26005KT 02/M03 A3036 RMK A01 T00161034  RH  069%=      5-min Rain = 0
KES1 100434Z 26005KT 02/M03 A3036 RMK A01 T00151034  RH  070%=      5-min Rain = 0
KES1 100435Z 25005KT 02/M03 A3036 RMK A01 T00151034  RH  070%=      5-min Rain = 0
KES1 100436Z 25005KT 01/M03 A3036 RMK A01 T00141034  RH  071%=      5-min Rain = 0
KES1 100437Z 25006KT 01/M03 A3036 RMK A01 T00141032  RH  071%=      5-min Rain = 0
KES1 100438Z 25005KT 01/M03 A3036 RMK A01 T00141031  RH  072%=      5-min Rain = 0
KES1 100439Z 25005KT 02/M03 A3036 RMK A01 T00151030  RH  072%=      5-min Rain = 0
KES1 100440Z 25005KT 02/M03 A3036 RMK A01 T00161030  RH  072%=      5-min Rain = 0
KES1 100441Z 26006KT 02/M03 A3037 RMK A01 T00161030  RH  071%=      5-min Rain = 0
KES1 100442Z 25006KT 02/M03 A3037 RMK A01 T00171029  RH  072%=      5-min Rain = 0
KES1 100443Z 25006KT 02/M03 A3037 RMK A01 T00181028  RH  072%=      5-min Rain = 0
KES1 100444Z 25006KT 02/M03 A3037 RMK A01 T00181029  RH  071%=      5-min Rain = 0
KES1 100445Z 25005KT 02/M03 A3037 RMK A01 T00181029  RH  071%=      5-min Rain = 0
KES1 100446Z 24005KT 02/M03 A3036 RMK A01 T00181028  RH  071%=      5-min Rain = 0
KES1 100447Z 24005KT 02/M03 A3036 RMK A01 T00171028  RH  072%=      5-min Rain = 0
KES1 100448Z 24005KT 02/M03 A3036 RMK A01 T00171028  RH  072%=      5-min Rain = 0
KES1 100449Z 24005KT 02/M03 A3036 RMK A01 T00161028  RH  073%=      5-min Rain = 0
KES1 100450Z 24004KT 02/M03 A3036 RMK A01 T00161027  RH  073%=      5-min Rain = 0
KES1 100451Z 25004KT 02/M03 A3036 RMK A01 T00161027  RH  073%=      5-min Rain = 0
KES1 100452Z 24004KT 02/M03 A3036 RMK A01 T00161027  RH  073%=      5-min Rain = 0
KES1 100453Z 24005KT 02/M03 A3036 RMK A01 T00161027  RH  073%=      5-min Rain = 0
KES1 100454Z 24005KT 02/M03 A3036 RMK A01 T00161027  RH  073%=      5-min Rain = 0
KES1 100455Z 24005KT 02/M03 A3036 RMK A01 T00151027  RH  074%=      5-min Rain = 0
KES1 100456Z 24005KT 02/M03 A3036 RMK A01 T00161026  RH  074%=      5-min Rain = 0
KES1 100457Z 25005KT 02/M03 A3036 RMK A01 T00161026  RH  074%=      5-min Rain = 0
KES1 100458Z 25004KT 02/M03 A3036 RMK A01 T00171026  RH  073%=      5-min Rain = 0
KES1 100459Z 26004KT 02/M03 A3036 RMK A01 T00171026  RH  073%=      5-min Rain = 0
KES1 100500Z 25004KT 02/M03 A3036 RMK A01 T00171026  RH  073%=      5-min Rain = 0
KES1 100501Z 25004KT 02/M03 A3036 RMK A01 T00171026  RH  073%=      5-min Rain = 0
KES1 100502Z 25004KT 02/M03 A3036 RMK A01 T00171026  RH  073%=      5-min Rain = 0
KES1 100503Z 25004KT 02/M03 A3036 RMK A01 T00171026  RH  073%=      5-min Rain = 0
KES1 100504Z 26004KT 02/M03 A3036 RMK A01 T00171025  RH  074%=      5-min Rain = 0
KES1 100505Z 26003KT 02/M03 A3036 RMK A01 T00171025  RH  074%=      5-min Rain = 0
KES1 100506Z 27004KT 02/M03 A3036 RMK A01 T00161026  RH  074%=      5-min Rain = 0
KES1 100507Z 26004KT 02/M03 A3036 RMK A01 T00161026  RH  074%=      5-min Rain = 0
KES1 100508Z 27005KT 02/M03 A3036 RMK A01 T00151027  RH  074%=      5-min Rain = 0
KES1 100509Z 27005KT 01/M03 A3036 RMK A01 T00141026  RH  074%=      5-min Rain = 0
KES1 100510Z 26004KT 01/M03 A3036 RMK A01 T00141026  RH  075%=      5-min Rain = 0
KES1 100511Z 26005KT 01/M03 A3036 RMK A01 T00141026  RH  075%=      5-min Rain = 0
KES1 100512Z 27006KT 01/M03 A3036 RMK A01 T00131026  RH  075%=      5-min Rain = 0
KES1 100513Z 27007KT 01/M03 A3036 RMK A01 T00121026  RH  075%=      5-min Rain = 0
KES1 100514Z 27006KT 01/M02 A3036 RMK A01 T00121024  RH  076%=      5-min Rain = 0
KES1 100515Z 27007KT 01/M02 A3036 RMK A01 T00131024  RH  077%=      5-min Rain = 0
KES1 100516Z 27007KT 02/M02 A3036 RMK A01 T00151021  RH  077%=      5-min Rain = 0
KES1 100517Z 26008KT 02/M02 A3036 RMK A01 T00161021  RH  076%=      5-min Rain = 0
KES1 100518Z 26007KT 02/M02 A3036 RMK A01 T00171021  RH  076%=      5-min Rain = 0
KES1 100519Z 27006KT 02/M02 A3036 RMK A01 T00161022  RH  075%=      5-min Rain = 0
KES1 100520Z 27007KT 02/M02 A3036 RMK A01 T00151022  RH  076%=      5-min Rain = 0
KES1 100521Z 27009KT 02/M02 A3036 RMK A01 T00151020  RH  077%=      5-min Rain = 0
KES1 100522Z 27008KT 02/M02 A3036 RMK A01 T00171020  RH  077%=      5-min Rain = 0
KES1 100523Z 27007KT 02/M02 A3036 RMK A01 T00181019  RH  076%=      5-min Rain = 0
KES1 100524Z 27007KT 02/M02 A3036 RMK A01 T00181020  RH  076%=      5-min Rain = 0
KES1 100525Z 27007KT 02/M02 A3036 RMK A01 T00181020  RH  076%=      5-min Rain = 0
KES1 100526Z 26007KT 02/M02 A3036 RMK A01 T00171020  RH  076%=      5-min Rain = 0
KES1 100527Z 26007KT 02/M02 A3036 RMK A01 T00171020  RH  076%=      5-min Rain = 0
KES1 100528Z 26006KT 02/M02 A3036 RMK A01 T00181020  RH  076%=      5-min Rain = 0
KES1 100529Z 25007KT 02/M02 A3036 RMK A01 T00181020  RH  076%=      5-min Rain = 0
KES1 100530Z 25007KT 02/M02 A3036 RMK A01 T00181020  RH  076%=      5-min Rain = 0
KES1 100531Z 26007KT 02/M02 A3036 RMK A01 T00181020  RH  076%=      5-min Rain = 0
KES1 100532Z 26007KT 02/M02 A3036 RMK A01 T00181020  RH  076%=      5-min Rain = 0
KES1 100533Z 25007KT 02/M02 A3036 RMK A01 T00171020  RH  076%=      5-min Rain = 0
KES1 100534Z 25006KT 02/M02 A3036 RMK A01 T00171020  RH  076%=      5-min Rain = 0
KES1 100535Z 25006KT 02/M02 A3036 RMK A01 T00171020  RH  076%=      5-min Rain = 0
KES1 100536Z 25007KT 02/M02 A3036 RMK A01 T00161020  RH  077%=      5-min Rain = 0
KES1 100537Z 25007KT 02/M02 A3035 RMK A01 T00161020  RH  077%=      5-min Rain = 0
KES1 100538Z 24007KT 02/M02 A3035 RMK A01 T00161020  RH  077%=      5-min Rain = 0
KES1 100539Z 24007KT 02/M02 A3035 RMK A01 T00171020  RH  077%=      5-min Rain = 0
KES1 100540Z 24008KT 02/M02 A3035 RMK A01 T00171020  RH  077%=      5-min Rain = 0
KES1 100541Z 24008KT 02/M02 A3035 RMK A01 T00171019  RH  077%=      5-min Rain = 0
KES1 100542Z 25008KT 02/M02 A3035 RMK A01 T00181019  RH  077%=      5-min Rain = 0
KES1 100543Z 25007KT 02/M02 A3035 RMK A01 T00181018  RH  077%=      5-min Rain = 0
KES1 100544Z 25007KT 02/M02 A3036 RMK A01 T00191018  RH  076%=      5-min Rain = 0
KES1 100545Z 26006KT 02/M02 A3036 RMK A01 T00201018  RH  076%=      5-min Rain = 0
KES1 100546Z 27006KT 02/M02 A3036 RMK A01 T00191018  RH  076%=      5-min Rain = 0
KES1 100547Z 27005KT 02/M02 A3036 RMK A01 T00191019  RH  076%=      5-min Rain = 0
KES1 100548Z 29005KT 02/M02 A3036 RMK A01 T00191019  RH  076%=      5-min Rain = 0
KES1 100549Z 30005KT 02/M02 A3036 RMK A01 T00181019  RH  076%=      5-min Rain = 0
KES1 100550Z 29004KT 02/M02 A3036 RMK A01 T00181019  RH  077%=      5-min Rain = 0
KES1 100551Z 28005KT 02/M02 A3036 RMK A01 T00181018  RH  077%=      5-min Rain = 0
KES1 100552Z 28006KT 02/M02 A3036 RMK A01 T00191018  RH  076%=      5-min Rain = 0
KES1 100553Z 28005KT 02/M02 A3036 RMK A01 T00191018  RH  076%=      5-min Rain = 0
KES1 100554Z 28006KT 02/M02 A3036 RMK A01 T00201018  RH  076%=      5-min Rain = 0
KES1 100555Z 29006KT 02/M02 A3036 RMK A01 T00211018  RH  076%=      5-min Rain = 0
KES1 100556Z 29006KT 02/M02 A3036 RMK A01 T00211018  RH  076%=      5-min Rain = 0
KES1 100557Z 30005KT 02/M02 A3036 RMK A01 T00211018  RH  076%=      5-min Rain = 0
KES1 100558Z 30005KT 02/M02 A3036 RMK A01 T00211018  RH  076%=      5-min Rain = 0
KES1 100559Z 30005KT 02/M02 A3036 RMK A01 T00191018  RH  076%=      5-min Rain = 0

Page generated in 0.0316 seconds.